| time (UTC) | temp F | wind direction | speed knots | gust knots | rain 1hr in | rain 24hr in | rain mn in | humidity % | barometer mb |
| 20260505182103 | 80 | 195 | 1.7 | 3.5 | 0.00 | 0.00 | 0.00 | 83 | 1012.3 |
| 20260505182003 | 80 | 234 | 1.7 | 3.5 | 0.00 | 0.00 | 0.00 | 83 | 1012.3 |
| 20260505181902 | 80 | 305 | 2.6 | 3.5 | 0.00 | 0.00 | 0.00 | 84 | 1012.2 |
| 20260505181802 | 80 | 299 | 2.6 | 3.5 | 0.00 | 0.00 | 0.00 | 84 | 1012.3 |
| 20260505181703 | 80 | 307 | 1.7 | 3.5 | 0.00 | 0.00 | 0.00 | 84 | 1012.3 |
| 20260505181603 | 80 | 307 | 1.7 | 6.1 | 0.00 | 0.00 | 0.00 | 84 | 1012.4 |
| 20260505181503 | 80 | 307 | 1.7 | 6.1 | 0.00 | 0.00 | 0.00 | 83 | 1012.2 |
| 20260505181402 | 80 | 197 | 1.7 | 6.1 | 0.00 | 0.00 | 0.00 | 83 | 1012.2 |
| 20260505181302 | 80 | 185 | 1.7 | 6.1 | 0.00 | 0.00 | 0.00 | 83 | 1012.3 |
| 20260505181203 | 80 | 188 | 1.7 | 6.1 | 0.00 | 0.00 | 0.00 | 83 | 1012.3 |
| 20260505181103 | 80 | 178 | 1.7 | 6.1 | 0.00 | 0.00 | 0.00 | 84 | 1012.4 |
| 20260505181004 | 80 | 290 | 1.7 | 6.1 | 0.00 | 0.00 | 0.00 | 83 | 1012.3 |
| 20260505180902 | 80 | 221 | 1.7 | 6.1 | 0.00 | 0.00 | 0.00 | 83 | 1012.3 |
| 20260505180804 | 80 | 113 | 2.6 | 6.1 | 0.00 | 0.00 | 0.00 | 83 | 1012.4 |
| 20260505180703 | 80 | 125 | 1.7 | 6.1 | 0.00 | 0.00 | 0.00 | 83 | 1012.4 |
| 20260505180604 | 80 | 320 | 1.7 | 5.2 | 0.00 | 0.00 | 0.00 | 83 | 1012.4 |
| 20260505180504 | 80 | 320 | 1.7 | 5.2 | 0.00 | 0.00 | 0.00 | 83 | 1012.4 |
| 20260505180402 | 81 | 199 | 2.6 | 5.2 | 0.00 | 0.00 | 0.00 | 84 | 1012.5 |
| 20260505180302 | 80 | 180 | 1.7 | 5.2 | 0.00 | 0.00 | 0.00 | 83 | 1012.5 |
| 20260505180204 | 80 | 319 | 0.9 | 5.2 | 0.00 | 0.00 | 0.00 | 83 | 1012.4 |
| 20260505180003 | 80 | 313 | 2.6 | 5.2 | 0.00 | 0.00 | 0.00 | 83 | 1012.4 |
| 20260505175902 | 80 | 292 | 2.6 | 5.2 | 0.00 | 0.00 | 0.00 | 83 | 1012.4 |
| 20260505175803 | 80 | 169 | 2.6 | 6.1 | 0.00 | 0.00 | 0.00 | 83 | 1012.4 |
| 20260505175703 | 80 | 334 | 2.6 | 6.1 | 0.00 | 0.00 | 0.00 | 83 | 1012.5 |
| 20260505175601 | 80 | 233 | 2.6 | 6.1 | 0.00 | 0.00 | 0.00 | 84 | 1012.5 |
| 20260505175504 | 80 | 137 | 1.7 | 6.1 | 0.00 | 0.00 | 0.00 | 84 | 1012.5 |
| 20260505175402 | 80 | 116 | 2.6 | 6.1 | 0.00 | 0.00 | 0.00 | 84 | 1012.4 |
| 20260505175305 | 80 | 281 | 2.6 | 6.1 | 0.00 | 0.00 | 0.00 | 84 | 1012.5 |
| 20260505175204 | 80 | 0 | 1.7 | 6.1 | 0.00 | 0.00 | 0.00 | 84 | 1012.5 |
| 20260505175102 | 80 | 0 | 1.7 | 6.1 | 0.00 | 0.00 | 0.00 | 84 | 1012.5 |
| 20260505175003 | 80 | 133 | 2.6 | 6.1 | 0.00 | 0.00 | 0.00 | 84 | 1012.5 |
| 20260505174902 | 80 | 117 | 2.6 | 6.1 | 0.00 | 0.00 | 0.00 | 84 | 1012.6 |
| 20260505174803 | 80 | 206 | 1.7 | 6.1 | 0.00 | 0.00 | 0.00 | 84 | 1012.5 |
| 20260505174702 | 80 | 125 | 1.7 | 6.1 | 0.00 | 0.00 | 0.00 | 84 | 1012.6 |
| 20260505174603 | 80 | 186 | 1.7 | 6.1 | 0.00 | 0.00 | 0.00 | 84 | 1012.6 |
| 20260505174504 | 80 | 197 | 0.9 | 6.1 | 0.00 | 0.00 | 0.00 | 84 | 1012.6 |
| 20260505174404 | 80 | 334 | 1.7 | 6.1 | 0.00 | 0.00 | 0.00 | 84 | 1012.6 |
| 20260505174304 | 80 | 155 | 2.6 | 6.1 | 0.00 | 0.00 | 0.00 | 84 | 1012.6 |
| 20260505174204 | 80 | 155 | 2.6 | 6.1 | 0.00 | 0.00 | 0.00 | 84 | 1012.6 |
| 20260505174102 | 80 | 316 | 1.7 | 6.1 | 0.00 | 0.00 | 0.00 | 84 | 1012.7 |
| 20260505174002 | 80 | 247 | 1.7 | 6.1 | 0.00 | 0.00 | 0.00 | 84 | 1012.7 |
| 20260505173902 | 80 | 142 | 1.7 | 6.1 | 0.00 | 0.00 | 0.00 | 84 | 1012.7 |
| 20260505173803 | 80 | 149 | 1.7 | 3.5 | 0.00 | 0.00 | 0.00 | 84 | 1012.7 |
| 20260505173703 | 80 | 262 | 0.9 | 3.5 | 0.00 | 0.00 | 0.00 | 84 | 1012.8 |
| 20260505173603 | 80 | 227 | 2.6 | 3.5 | 0.00 | 0.00 | 0.00 | 84 | 1012.7 |
| 20260505173504 | 80 | 227 | 2.6 | 5.2 | 0.00 | 0.00 | 0.00 | 84 | 1012.9 |
| 20260505173403 | 80 | 227 | 2.6 | 5.2 | 0.00 | 0.00 | 0.00 | 84 | 1012.9 |
| 20260505173304 | 80 | 227 | 2.6 | 5.2 | 0.00 | 0.00 | 0.00 | 84 | 1012.8 |
| 20260505173204 | 80 | 227 | 2.6 | 5.2 | 0.00 | 0.00 | 0.00 | 84 | 1012.8 |
| 20260505173104 | 80 | 320 | 2.6 | 5.2 | 0.00 | 0.00 | 0.00 | 84 | 1012.8 |
| 20260505173003 | 80 | 213 | 1.7 | 5.2 | 0.00 | 0.00 | 0.00 | 84 | 1012.8 |
| 20260505172904 | 80 | 162 | 1.7 | 5.2 | 0.00 | 0.00 | 0.00 | 84 | 1012.9 |
| 20260505172803 | 80 | 166 | 1.7 | 5.2 | 0.00 | 0.00 | 0.00 | 84 | 1012.9 |
| 20260505172703 | 80 | 168 | 2.6 | 7.8 | 0.00 | 0.00 | 0.00 | 84 | 1012.9 |
| 20260505172604 | 80 | 295 | 1.7 | 7.8 | 0.00 | 0.00 | 0.00 | 84 | 1012.9 |
| 20260505172502 | 80 | 281 | 1.7 | 7.8 | 0.00 | 0.00 | 0.00 | 85 | 1012.8 |
| 20260505172404 | 80 | 248 | 1.7 | 7.8 | 0.00 | 0.00 | 0.00 | 85 | 1012.8 |
| 20260505172301 | 80 | 269 | 0.9 | 7.8 | 0.00 | 0.00 | 0.00 | 85 | 1012.7 |
| 20260505172202 | 80 | 268 | 1.7 | 7.8 | 0.00 | 0.00 | 0.00 | 84 | 1012.8 |
| 20260505172103 | 80 | 269 | 1.7 | 7.8 | 0.00 | 0.00 | 0.00 | 84 | 1012.8 |
| 20260505172004 | 80 | 269 | 1.7 | 7.8 | 0.00 | 0.00 | 0.00 | 84 | 1012.8 |
| 20260505171901 | 80 | 271 | 2.6 | 7.8 | 0.00 | 0.00 | 0.00 | 84 | 1012.7 |
| 20260505171802 | 80 | 285 | 3.5 | 7.8 | 0.00 | 0.00 | 0.00 | 84 | 1012.8 |
| 20260505171704 | 80 | 224 | 2.6 | 6.1 | 0.00 | 0.00 | 0.00 | 84 | 1012.8 |
| 20260505171603 | 80 | 269 | 1.7 | 4.3 | 0.00 | 0.00 | 0.00 | 84 | 1012.8 |
| 20260505171504 | 79 | 252 | 2.6 | 4.3 | 0.00 | 0.00 | 0.00 | 84 | 1012.8 |
| 20260505171404 | 79 | 45 | 2.6 | 5.2 | 0.00 | 0.00 | 0.00 | 85 | 1012.8 |
| 20260505171302 | 79 | 252 | 0.9 | 5.2 | 0.00 | 0.00 | 0.00 | 85 | 1012.9 |
| 20260505171203 | 79 | 140 | 1.7 | 5.2 | 0.00 | 0.00 | 0.00 | 85 | 1012.8 |
| 20260505171103 | 79 | 142 | 1.7 | 5.2 | 0.00 | 0.00 | 0.00 | 85 | 1012.8 |
| 20260505171004 | 79 | 227 | 1.7 | 5.2 | 0.00 | 0.00 | 0.00 | 85 | 1012.9 |
| 20260505170903 | 79 | 306 | 0.9 | 5.2 | 0.00 | 0.00 | 0.00 | 85 | 1012.8 |
| 20260505170802 | 79 | 17 | 1.7 | 5.2 | 0.00 | 0.00 | 0.00 | 85 | 1013.0 |
| 20260505170702 | 79 | 0 | 1.7 | 5.2 | 0.00 | 0.00 | 0.00 | 85 | 1012.9 |
| 20260505170602 | 79 | 125 | 2.6 | 5.2 | 0.00 | 0.00 | 0.00 | 85 | 1012.8 |
| 20260505170503 | 79 | 125 | 3.5 | 5.2 | 0.00 | 0.00 | 0.00 | 85 | 1012.9 |
| 20260505170404 | 79 | 305 | 2.6 | 5.2 | 0.00 | 0.00 | 0.00 | 85 | 1012.9 |
| 20260505170305 | 79 | 319 | 2.6 | 5.2 | 0.00 | 0.00 | 0.00 | 85 | 1012.8 |
| 20260505170203 | 79 | 286 | 3.5 | 5.2 | 0.00 | 0.00 | 0.00 | 85 | 1012.9 |
| 20260505170004 | 79 | 212 | 0.9 | 4.3 | 0.00 | 0.00 | 0.00 | 85 | 1012.9 |
| 20260505165903 | 79 | 323 | 1.7 | 4.3 | 0.00 | 0.00 | 0.00 | 85 | 1013.0 |
| 20260505165804 | 79 | 323 | 1.7 | 4.3 | 0.00 | 0.00 | 0.00 | 85 | 1012.9 |
| 20260505165703 | 79 | 323 | 1.7 | 4.3 | 0.00 | 0.00 | 0.00 | 85 | 1013.0 |
| 20260505165603 | 79 | 21 | 2.6 | 4.3 | 0.00 | 0.00 | 0.00 | 85 | 1012.9 |
| 20260505165505 | 79 | 0 | 1.7 | 4.3 | 0.00 | 0.00 | 0.00 | 85 | 1013.0 |
| 20260505165402 | 79 | 238 | 1.7 | 4.3 | 0.00 | 0.00 | 0.00 | 85 | 1012.9 |
| 20260505165305 | 79 | 219 | 1.7 | 6.1 | 0.00 | 0.00 | 0.00 | 85 | 1012.9 |
| 20260505165205 | 79 | 316 | 1.7 | 6.1 | 0.00 | 0.00 | 0.00 | 85 | 1013.0 |
| 20260505165103 | 79 | 63 | 1.7 | 6.1 | 0.00 | 0.00 | 0.00 | 85 | 1012.9 |
| 20260505165005 | 79 | 165 | 1.7 | 6.1 | 0.00 | 0.00 | 0.00 | 85 | 1013.0 |
| 20260505164901 | 79 | 320 | 1.7 | 6.1 | 0.00 | 0.00 | 0.00 | 85 | 1013.0 |
| 20260505164802 | 79 | 210 | 1.7 | 6.1 | 0.00 | 0.00 | 0.00 | 85 | 1013.0 |
| 20260505164704 | 79 | 336 | 1.7 | 6.1 | 0.00 | 0.00 | 0.00 | 85 | 1013.0 |
| 20260505164602 | 79 | 228 | 1.7 | 6.1 | 0.00 | 0.00 | 0.00 | 85 | 1013.0 |
| 20260505164504 | 79 | 149 | 2.6 | 6.1 | 0.00 | 0.00 | 0.00 | 85 | 1013.0 |
| 20260505164402 | 79 | 154 | 3.5 | 6.1 | 0.00 | 0.00 | 0.00 | 85 | 1013.0 |
| 20260505164304 | 79 | 152 | 1.7 | 4.3 | 0.00 | 0.00 | 0.00 | 85 | 1013.0 |
| 20260505164201 | 79 | 155 | 1.7 | 7.8 | 0.00 | 0.00 | 0.00 | 85 | 1013.0 |
| 20260505164102 | 79 | 275 | 1.7 | 7.8 | 0.00 | 0.00 | 0.00 | 85 | 1013.0 |
| 20260505164003 | 79 | 216 | 1.7 | 7.8 | 0.00 | 0.00 | 0.00 | 85 | 1013.0 |
| 20260505163903 | 79 | 68 | 1.7 | 7.8 | 0.00 | 0.00 | 0.00 | 85 | 1013.0 |
| 20260505163803 | 79 | 68 | 2.6 | 7.8 | 0.00 | 0.00 | 0.00 | 85 | 1013.0 |
| 20260505163703 | 79 | 131 | 1.7 | 7.8 | 0.00 | 0.00 | 0.00 | 85 | 1012.9 |
| 20260505163603 | 79 | 238 | 1.7 | 7.8 | 0.00 | 0.00 | 0.00 | 85 | 1013.0 |
| 20260505163502 | 79 | 155 | 1.7 | 7.8 | 0.00 | 0.00 | 0.00 | 85 | 1013.0 |
| 20260505163403 | 79 | 120 | 1.7 | 7.8 | 0.00 | 0.00 | 0.00 | 85 | 1012.9 |
| 20260505163302 | 79 | 86 | 1.7 | 7.8 | 0.00 | 0.00 | 0.00 | 85 | 1012.9 |
| 20260505163202 | 79 | 355 | 0.9 | 4.3 | 0.00 | 0.00 | 0.00 | 85 | 1012.9 |
| 20260505163103 | 79 | 168 | 0.9 | 4.3 | 0.00 | 0.00 | 0.00 | 85 | 1012.8 |
| 20260505163003 | 79 | 169 | 1.7 | 4.3 | 0.00 | 0.00 | 0.00 | 85 | 1012.9 |
| 20260505162904 | 79 | 138 | 1.7 | 4.3 | 0.00 | 0.00 | 0.00 | 85 | 1012.9 |
| 20260505162804 | 79 | 283 | 2.6 | 4.3 | 0.00 | 0.00 | 0.00 | 85 | 1012.9 |
| 20260505162702 | 78 | 353 | 1.7 | 4.3 | 0.00 | 0.00 | 0.00 | 86 | 1012.9 |
| 20260505162602 | 78 | 271 | 1.7 | 4.3 | 0.00 | 0.00 | 0.00 | 86 | 1013.0 |
| 20260505162503 | 79 | 264 | 1.7 | 4.3 | 0.00 | 0.00 | 0.00 | 86 | 1012.9 |
| 20260505162402 | 78 | 312 | 1.7 | 4.3 | 0.00 | 0.00 | 0.00 | 86 | 1012.9 |
| 20260505162306 | 78 | 0 | 1.7 | 4.3 | 0.00 | 0.00 | 0.00 | 85 | 1013.0 |
| 20260505162203 | 78 | 345 | 0.9 | 4.3 | 0.00 | 0.00 | 0.00 | 85 | 1013.0 |
| 20260505162102 | 78 | 329 | 1.7 | 4.3 | 0.00 | 0.00 | 0.00 | 85 | 1013.0 |
| 20260505162002 | 78 | 313 | 1.7 | 4.3 | 0.00 | 0.00 | 0.00 | 86 | 1012.9 |
| 20260505161903 | 79 | 192 | 1.7 | 4.3 | 0.00 | 0.00 | 0.00 | 85 | 1013.0 |
| 20260505161802 | 78 | 142 | 2.6 | 4.3 | 0.00 | 0.00 | 0.00 | 85 | 1012.9 |
| 20260505161702 | 79 | 159 | 3.5 | 4.3 | 0.00 | 0.00 | 0.00 | 86 | 1012.9 |
| 20260505161603 | 78 | 182 | 1.7 | 4.3 | 0.00 | 0.00 | 0.00 | 86 | 1012.8 |
| 20260505161505 | 78 | 182 | 1.7 | 4.3 | 0.00 | 0.00 | 0.00 | 86 | 1012.9 |
| 20260505161404 | 78 | 344 | 1.7 | 4.3 | 0.00 | 0.00 | 0.00 | 86 | 1012.9 |
| 20260505161304 | 78 | 348 | 1.7 | 4.3 | 0.00 | 0.00 | 0.00 | 86 | 1012.8 |
| 20260505161202 | 78 | 210 | 0.9 | 7.8 | 0.00 | 0.00 | 0.00 | 86 | 1012.9 |
| 20260505161102 | 78 | 214 | 1.7 | 7.8 | 0.00 | 0.00 | 0.00 | 86 | 1012.9 |
| 20260505161002 | 78 | 224 | 1.7 | 7.8 | 0.00 | 0.00 | 0.00 | 86 | 1012.9 |
| 20260505160903 | 78 | 327 | 1.7 | 7.8 | 0.00 | 0.00 | 0.00 | 86 | 1012.9 |
| 20260505160803 | 78 | 302 | 1.7 | 7.8 | 0.00 | 0.00 | 0.00 | 86 | 1012.8 |
| 20260505160703 | 78 | 231 | 1.7 | 7.8 | 0.00 | 0.00 | 0.00 | 86 | 1012.9 |
| 20260505160603 | 78 | 228 | 0.9 | 7.8 | 0.00 | 0.00 | 0.00 | 86 | 1012.8 |
| 20260505160504 | 78 | 295 | 1.7 | 7.8 | 0.00 | 0.00 | 0.00 | 86 | 1012.8 |
| 20260505160403 | 78 | 303 | 3.5 | 7.8 | 0.00 | 0.00 | 0.00 | 86 | 1012.8 |
| 20260505160301 | 78 | 358 | 3.5 | 7.8 | 0.00 | 0.00 | 0.00 | 86 | 1012.8 |
| 20260505160204 | 78 | 228 | 2.6 | 6.1 | 0.00 | 0.00 | 0.00 | 86 | 1012.8 |
| 20260505153349 | 77 | 140 | 0.9 | 3.5 | 0.00 | 0.00 | 0.00 | 87 | 1012.7 |
| 20260505153247 | 77 | 173 | 0.9 | 3.5 | 0.00 | 0.00 | 0.00 | 87 | 1012.7 |
| 20260505153145 | 77 | 172 | 0.9 | 3.5 | 0.00 | 0.00 | 0.00 | 87 | 1012.6 |
| 20260505153043 | 77 | 172 | 0.9 | 3.5 | 0.00 | 0.00 | 0.00 | 87 | 1012.7 |
| 20260505152942 | 77 | 300 | 0.9 | 3.5 | 0.00 | 0.00 | 0.00 | 87 | 1012.6 |
| 20260505152841 | 77 | 300 | 0.9 | 3.5 | 0.00 | 0.00 | 0.00 | 87 | 1012.6 |
| 20260505152739 | 77 | 300 | 0.9 | 4.3 | 0.00 | 0.00 | 0.00 | 87 | 1012.6 |
| 20260505152637 | 78 | 151 | 0.9 | 4.3 | 0.00 | 0.00 | 0.00 | 87 | 1012.6 |
| 20260505152537 | 78 | 151 | 1.7 | 4.3 | 0.00 | 0.00 | 0.00 | 86 | 1012.5 |
| 20260505152434 | 78 | 290 | 1.7 | 4.3 | 0.00 | 0.00 | 0.00 | 86 | 1012.5 |
| 20260505152332 | 78 | 309 | 1.7 | 4.3 | 0.00 | 0.00 | 0.00 | 86 | 1012.5 |
| 20260505152233 | 78 | 343 | 1.7 | 4.3 | 0.00 | 0.00 | 0.00 | 86 | 1012.5 |
| 20260505152134 | 78 | 127 | 0.9 | 4.3 | 0.00 | 0.00 | 0.00 | 86 | 1012.5 |
| 20260505152033 | 78 | 125 | 1.7 | 4.3 | 0.00 | 0.00 | 0.00 | 86 | 1012.5 |
| 20260505151932 | 78 | 125 | 1.7 | 4.3 | 0.00 | 0.00 | 0.00 | 86 | 1012.5 |
| 20260505151832 | 78 | 127 | 1.7 | 3.5 | 0.00 | 0.00 | 0.00 | 86 | 1012.5 |
| 20260505151733 | 78 | 172 | 1.7 | 3.5 | 0.00 | 0.00 | 0.00 | 86 | 1012.5 |
| 20260505151632 | 78 | 54 | 1.7 | 3.5 | 0.00 | 0.00 | 0.00 | 87 | 1012.5 |
| 20260505151533 | 78 | 128 | 1.7 | 4.3 | 0.00 | 0.00 | 0.00 | 87 | 1012.5 |
| 20260505151432 | 78 | 193 | 0.0 | 4.3 | 0.00 | 0.00 | 0.00 | 87 | 1012.6 |
| 20260505151332 | 78 | 192 | 0.9 | 4.3 | 0.00 | 0.00 | 0.00 | 86 | 1012.6 |
| 20260505151232 | 78 | 192 | 1.7 | 4.3 | 0.00 | 0.00 | 0.00 | 86 | 1012.6 |
| 20260505151132 | 78 | 212 | 1.7 | 4.3 | 0.00 | 0.00 | 0.00 | 86 | 1012.6 |
| 20260505151034 | 78 | 45 | 1.7 | 4.3 | 0.00 | 0.00 | 0.00 | 86 | 1012.6 |
| 20260505150932 | 78 | 49 | 1.7 | 4.3 | 0.00 | 0.00 | 0.00 | 86 | 1012.6 |
| 20260505150830 | 78 | 103 | 1.7 | 4.3 | 0.00 | 0.00 | 0.00 | 87 | 1012.7 |
| 20260505150731 | 78 | 59 | 1.7 | 4.3 | 0.00 | 0.00 | 0.00 | 87 | 1012.6 |
| 20260505150628 | 78 | 281 | 1.7 | 4.3 | 0.00 | 0.00 | 0.00 | 87 | 1012.7 |
| 20260505150526 | 78 | 306 | 1.7 | 4.3 | 0.00 | 0.00 | 0.00 | 87 | 1012.7 |
| 20260505150425 | 78 | 278 | 1.7 | 5.2 | 0.00 | 0.00 | 0.00 | 87 | 1012.6 |
| 20260505150325 | 77 | 281 | 1.7 | 5.2 | 0.00 | 0.00 | 0.00 | 87 | 1012.6 |
| 20260505150227 | 77 | 296 | 2.6 | 6.1 | 0.00 | 0.00 | 0.00 | 87 | 1012.6 |
| 20260505150124 | 77 | 298 | 2.6 | 8.7 | 0.00 | 0.00 | 0.00 | 87 | 1012.6 |
| 20260505140631 | 76 | 121 | 1.7 | 4.3 | 0.00 | 0.00 | 0.00 | 90 | 1012.4 |
| 20260505140532 | 76 | 121 | 1.7 | 4.3 | 0.00 | 0.00 | 0.00 | 90 | 1012.4 |
| 20260505140432 | 76 | 69 | 1.7 | 2.6 | 0.00 | 0.00 | 0.00 | 90 | 1012.4 |
| 20260505140332 | 0 | 97 | 0.9 | 2.6 | 0.00 | 0.00 | 0.00 | 1012.5 | |
| 20260505140232 | 75 | 10 | 0.9 | 2.6 | 0.00 | 0.00 | 0.00 | 90 | 1012.5 |
| 20260505140132 | 75 | 10 | 0.9 | 2.6 | 0.00 | 0.00 | 0.00 | 90 | 1012.5 |
| 20260505130303 | 74 | 0 | 0.9 | 4.3 | 0.00 | 0.00 | 0.00 | 91 | 1012.0 |
| 20260505130203 | 74 | 261 | 0.9 | 4.3 | 0.00 | 0.00 | 0.00 | 91 | 1012.0 |
| 20260505124946 | 74 | 350 | 0.9 | 6.1 | 0.00 | 0.00 | 0.00 | 91 | 1012.2 |
| 20260505124845 | 74 | 350 | 1.7 | 6.1 | 0.00 | 0.00 | 0.00 | 91 | 1012.1 |
| 20260505124743 | 74 | 348 | 1.7 | 6.1 | 0.00 | 0.00 | 0.00 | 91 | 1012.2 |
| 20260505124643 | 74 | 341 | 0.9 | 6.1 | 0.00 | 0.00 | 0.00 | 91 | 1012.2 |
| 20260505124541 | 74 | 120 | 0.0 | 6.1 | 0.00 | 0.00 | 0.00 | 91 | 1012.2 |
| 20260505124439 | 74 | 120 | 0.9 | 6.1 | 0.00 | 0.00 | 0.00 | 91 | 1012.1 |
| 20260505124338 | 74 | 120 | 1.7 | 6.1 | 0.00 | 0.00 | 0.00 | 91 | 1012.1 |
| 20260505124236 | 74 | 116 | 1.7 | 6.1 | 0.00 | 0.00 | 0.00 | 91 | 1012.1 |
| 20260505124133 | 74 | 49 | 0.9 | 2.6 | 0.00 | 0.00 | 0.00 | 91 | 1012.2 |
| 20260505124031 | 74 | 49 | 0.9 | 2.6 | 0.00 | 0.00 | 0.00 | 91 | 1012.2 |
| 20260505123931 | 74 | 145 | 0.9 | 2.6 | 0.00 | 0.00 | 0.00 | 92 | 1012.2 |
| 20260505123831 | 74 | 147 | 0.9 | 2.6 | 0.00 | 0.00 | 0.00 | 92 | 1012.2 |
| 20260505123731 | 74 | 65 | 0.0 | 2.6 | 0.00 | 0.00 | 0.00 | 92 | 1012.3 |
| 20260505123633 | 74 | 47 | 0.0 | 2.6 | 0.00 | 0.00 | 0.00 | 92 | 1012.2 |
| 20260505123531 | 74 | 47 | 0.0 | 2.6 | 0.00 | 0.00 | 0.00 | 92 | 1012.2 |
| 20260505123431 | 74 | 47 | 0.9 | 2.6 | 0.00 | 0.00 | 0.00 | 92 | 1012.2 |
| 20260505123331 | 74 | 47 | 0.9 | 3.5 | 0.00 | 0.00 | 0.00 | 92 | 1012.2 |
| 20260505123231 | 73 | 47 | 0.9 | 3.5 | 0.00 | 0.00 | 0.00 | 92 | 1012.0 |
| 20260505123132 | 73 | 154 | 0.9 | 3.5 | 0.00 | 0.00 | 0.00 | 92 | 1012.0 |
| 20260505123032 | 73 | 221 | 0.9 | 3.5 | 0.00 | 0.00 | 0.00 | 92 | 1012.1 |
| 20260505122932 | 73 | 123 | 0.9 | 3.5 | 0.00 | 0.00 | 0.00 | 92 | 1012.1 |
| 20260505122831 | 73 | 118 | 0.0 | 3.5 | 0.00 | 0.00 | 0.00 | 92 | 1012.1 |
| 20260505122732 | 73 | 55 | 0.0 | 3.5 | 0.00 | 0.00 | 0.00 | 92 | 1012.2 |
| 20260505122634 | 73 | 52 | 0.9 | 3.5 | 0.00 | 0.00 | 0.00 | 92 | 1012.1 |
| 20260505122532 | 73 | 52 | 1.7 | 3.5 | 0.00 | 0.00 | 0.00 | 92 | 1012.2 |
| 20260505122432 | 73 | 51 | 1.7 | 3.5 | 0.00 | 0.00 | 0.00 | 92 | 1012.2 |
| 20260505122331 | 73 | 127 | 0.9 | 3.5 | 0.00 | 0.00 | 0.00 | 92 | 1012.2 |
| 20260505122232 | 73 | 127 | 0.0 | 3.5 | 0.00 | 0.00 | 0.00 | 92 | 1012.3 |
| 20260505122132 | 73 | 127 | 0.9 | 3.5 | 0.00 | 0.00 | 0.00 | 92 | 1012.1 |
| 20260505122032 | 73 | 127 | 1.7 | 3.5 | 0.00 | 0.00 | 0.00 | 92 | 1012.1 |
| 20260505121933 | 73 | 128 | 1.7 | 3.5 | 0.00 | 0.00 | 0.00 | 92 | 1012.1 |
| 20260505121832 | 73 | 31 | 0.9 | 3.5 | 0.00 | 0.00 | 0.00 | 92 | 1012.1 |
| 20260505121731 | 73 | 31 | 0.0 | 3.5 | 0.00 | 0.00 | 0.00 | 92 | 1012.0 |
| 20260505121631 | 73 | 31 | 0.9 | 3.5 | 0.00 | 0.00 | 0.00 | 92 | 1012.0 |
| 20260505121532 | 73 | 31 | 0.9 | 3.5 | 0.00 | 0.00 | 0.00 | 92 | 1011.9 |
| 20260505121433 | 73 | 31 | 0.9 | 3.5 | 0.00 | 0.00 | 0.00 | 92 | 1011.9 |
| 20260505121331 | 73 | 30 | 1.7 | 3.5 | 0.00 | 0.00 | 0.00 | 92 | 1011.9 |
| 20260505121233 | 73 | 30 | 1.7 | 3.5 | 0.00 | 0.00 | 0.00 | 92 | 1011.8 |
| 20260505121131 | 73 | 128 | 0.9 | 3.5 | 0.00 | 0.00 | 0.00 | 92 | 1011.8 |
| 20260505121030 | 73 | 130 | 0.9 | 3.5 | 0.00 | 0.00 | 0.00 | 92 | 1011.8 |
| 20260505120932 | 73 | 130 | 0.9 | 3.5 | 0.00 | 0.00 | 0.00 | 92 | 1011.7 |
| 20260505120832 | 73 | 259 | 0.9 | 3.5 | 0.00 | 0.00 | 0.00 | 92 | 1011.7 |
| 20260505120731 | 73 | 258 | 0.9 | 3.5 | 0.00 | 0.00 | 0.00 | 92 | 1011.7 |
| 20260505120632 | 73 | 259 | 0.9 | 3.5 | 0.00 | 0.00 | 0.00 | 92 | 1011.7 |
| 20260505120532 | 73 | 258 | 0.0 | 3.5 | 0.00 | 0.00 | 0.00 | 92 | 1011.7 |
| 20260505120432 | 73 | 247 | 0.9 | 3.5 | 0.00 | 0.00 | 0.00 | 92 | 1011.8 |
| 20260505120331 | 73 | 248 | 0.9 | 3.5 | 0.00 | 0.00 | 0.00 | 92 | 1011.7 |
| 20260505120229 | 73 | 250 | 0.9 | 3.5 | 0.00 | 0.00 | 0.00 | 92 | 1011.8 |
| 20260505120129 | 73 | 111 | 0.0 | 1.7 | 0.00 | 0.00 | 0.00 | 92 | 1011.7 |
| 20260505120026 | 73 | 111 | 0.9 | 1.7 | 0.00 | 0.00 | 0.00 | 92 | 1011.7 |
| 20260505115925 | 73 | 111 | 0.9 | 1.7 | 0.00 | 0.00 | 0.00 | 92 | 1011.7 |
| 20260505115825 | 73 | 123 | 0.9 | 1.7 | 0.00 | 0.00 | 0.00 | 92 | 1011.7 |
| 20260505115725 | 73 | 161 | 0.9 | 1.7 | 0.00 | 0.00 | 0.00 | 92 | 1011.6 |
| 20260505115625 | 73 | 124 | 0.0 | 1.7 | 0.00 | 0.00 | 0.00 | 92 | 1011.6 |
| 20260505115525 | 73 | 124 | 0.9 | 2.6 | 0.00 | 0.00 | 0.00 | 92 | 1011.6 |
| 20260505115424 | 73 | 124 | 0.9 | 2.6 | 0.00 | 0.00 | 0.00 | 92 | 1011.7 |
| 20260505115325 | 73 | 133 | 0.9 | 2.6 | 0.00 | 0.00 | 0.00 | 92 | 1011.6 |
| 20260505115225 | 73 | 87 | 0.9 | 2.6 | 0.00 | 0.00 | 0.00 | 92 | 1011.7 |
| 20260505115126 | 73 | 87 | 0.9 | 2.6 | 0.00 | 0.00 | 0.00 | 92 | 1011.8 |
| 20260505115026 | 73 | 89 | 0.9 | 2.6 | 0.00 | 0.00 | 0.00 | 92 | 1011.8 |
| 20260505114926 | 73 | 89 | 0.9 | 2.6 | 0.00 | 0.00 | 0.00 | 91 | 1011.8 |
| 20260505114825 | 73 | 89 | 0.9 | 2.6 | 0.00 | 0.00 | 0.00 | 91 | 1011.9 |
| 20260505114725 | 73 | 89 | 1.7 | 2.6 | 0.00 | 0.00 | 0.00 | 91 | 1011.9 |
| 20260505114624 | 73 | 89 | 1.7 | 2.6 | 0.00 | 0.00 | 0.00 | 91 | 1011.9 |
| 20260505114524 | 73 | 141 | 0.9 | 2.6 | 0.00 | 0.00 | 0.00 | 91 | 1012.0 |
| 20260505114424 | 73 | 209 | 0.0 | 2.6 | 0.00 | 0.00 | 0.00 | 91 | 1011.9 |
| 20260505114324 | 73 | 209 | 0.0 | 2.6 | 0.00 | 0.00 | 0.00 | 91 | 1012.0 |
| 20260505114226 | 73 | 209 | 0.9 | 2.6 | 0.00 | 0.00 | 0.00 | 91 | 1012.0 |
| 20260505114124 | 73 | 209 | 0.9 | 2.6 | 0.00 | 0.00 | 0.00 | 91 | 1012.1 |
| 20260505114026 | 73 | 209 | 0.9 | 2.6 | 0.00 | 0.00 | 0.00 | 91 | 1012.1 |
| 20260505113924 | 73 | 212 | 0.9 | 2.6 | 0.00 | 0.00 | 0.00 | 91 | 1012.1 |
| 20260505113824 | 73 | 212 | 0.9 | 2.6 | 0.00 | 0.00 | 0.00 | 91 | 1012.2 |
| 20260505113725 | 73 | 237 | 0.0 | 2.6 | 0.00 | 0.00 | 0.00 | 91 | 1012.1 |
| 20260505113624 | 73 | 237 | 0.0 | 2.6 | 0.00 | 0.00 | 0.00 | 91 | 1012.0 |
| 20260505113525 | 73 | 283 | 0.9 | 2.6 | 0.00 | 0.00 | 0.00 | 91 | 1012.1 |
| 20260505113424 | 73 | 282 | 0.9 | 2.6 | 0.00 | 0.00 | 0.00 | 91 | 1012.1 |
| 20260505113325 | 73 | 282 | 1.7 | 2.6 | 0.00 | 0.00 | 0.00 | 91 | 1012.1 |
| 20260505113224 | 73 | 97 | 0.9 | 2.6 | 0.00 | 0.00 | 0.00 | 91 | 1012.0 |
| 20260505113124 | 73 | 49 | 0.9 | 2.6 | 0.00 | 0.00 | 0.00 | 91 | 1012.0 |
| 20260505113025 | 73 | 16 | 1.7 | 3.5 | 0.00 | 0.00 | 0.00 | 91 | 1011.9 |
| 20260505112925 | 73 | 14 | 1.7 | 6.1 | 0.00 | 0.00 | 0.00 | 91 | 1011.9 |
| 20260505112824 | 73 | 157 | 1.7 | 6.1 | 0.00 | 0.00 | 0.00 | 91 | 1011.8 |
| 20260505112725 | 73 | 110 | 0.9 | 6.1 | 0.00 | 0.00 | 0.00 | 91 | 1011.8 |
| 20260505112627 | 73 | 110 | 0.9 | 6.1 | 0.00 | 0.00 | 0.00 | 91 | 1011.8 |
| 20260505112525 | 73 | 110 | 0.9 | 6.1 | 0.00 | 0.00 | 0.00 | 91 | 1011.7 |
| 20260505112426 | 73 | 14 | 0.9 | 6.1 | 0.00 | 0.00 | 0.00 | 91 | 1011.8 |
| 20260505112326 | 73 | 6 | 0.9 | 6.1 | 0.00 | 0.00 | 0.00 | 91 | 1011.9 |
| 20260505112224 | 73 | 6 | 1.7 | 6.1 | 0.00 | 0.00 | 0.00 | 91 | 1011.8 |
| 20260505112124 | 73 | 113 | 1.7 | 6.1 | 0.00 | 0.00 | 0.00 | 91 | 1011.9 |
| 20260505112024 | 73 | 213 | 1.7 | 6.1 | 0.00 | 0.00 | 0.00 | 91 | 1011.8 |
| 20260505111925 | 73 | 121 | 1.7 | 4.3 | 0.00 | 0.00 | 0.00 | 91 | 1011.8 |
| 20260505111824 | 73 | 231 | 1.7 | 6.1 | 0.00 | 0.00 | 0.00 | 91 | 1011.8 |
| 20260505111724 | 73 | 34 | 0.9 | 6.1 | 0.00 | 0.00 | 0.00 | 91 | 1011.7 |
| 20260505111625 | 73 | 38 | 1.7 | 6.1 | 0.00 | 0.00 | 0.00 | 91 | 1011.8 |
| 20260505111525 | 73 | 31 | 0.9 | 6.1 | 0.00 | 0.00 | 0.00 | 91 | 1011.7 |
| 20260505111424 | 73 | 314 | 1.7 | 6.1 | 0.00 | 0.00 | 0.00 | 91 | 1011.7 |
| 20260505111324 | 73 | 292 | 1.7 | 6.1 | 0.00 | 0.00 | 0.00 | 91 | 1011.7 |
| 20260505111223 | 73 | 144 | 0.9 | 6.1 | 0.00 | 0.00 | 0.00 | 91 | 1011.7 |
| 20260505111124 | 73 | 145 | 0.9 | 6.1 | 0.00 | 0.00 | 0.00 | 91 | 1011.7 |
| 20260505111023 | 73 | 145 | 1.7 | 6.1 | 0.00 | 0.00 | 0.00 | 91 | 1011.6 |
| 20260505110923 | 73 | 145 | 1.7 | 6.1 | 0.00 | 0.00 | 0.00 | 91 | 1011.6 |
| 20260505110824 | 73 | 82 | 0.9 | 5.2 | 0.00 | 0.00 | 0.00 | 91 | 1011.6 |
| 20260505110725 | 73 | 75 | 0.9 | 5.2 | 0.00 | 0.00 | 0.00 | 91 | 1011.6 |
| 20260505110625 | 73 | 137 | 0.9 | 5.2 | 0.00 | 0.00 | 0.00 | 91 | 1011.6 |
| 20260505110524 | 73 | 192 | 0.9 | 5.2 | 0.00 | 0.00 | 0.00 | 91 | 1011.7 |
| 20260505110424 | 73 | 192 | 0.9 | 5.2 | 0.00 | 0.00 | 0.00 | 91 | 1011.7 |
| 20260505110323 | 73 | 199 | 0.9 | 5.2 | 0.00 | 0.00 | 0.00 | 91 | 1011.7 |
| 20260505110226 | 73 | 203 | 1.7 | 5.2 | 0.00 | 0.00 | 0.00 | 91 | 1011.7 |
| 20260505110124 | 73 | 94 | 1.7 | 5.2 | 0.00 | 0.00 | 0.00 | 91 | 1011.7 |
| 20260505102205 | 72 | 121 | 0.9 | 3.5 | 0.00 | 0.00 | 0.00 | 91 | 1011.8 |
| 20260505102101 | 72 | 121 | 1.7 | 3.5 | 0.00 | 0.00 | 0.00 | 91 | 1011.8 |
| 20260505102006 | 72 | 166 | 1.7 | 3.5 | 0.00 | 0.00 | 0.00 | 91 | 1011.8 |
| 20260505101905 | 72 | 41 | 1.7 | 3.5 | 0.00 | 0.00 | 0.00 | 91 | 1011.7 |
| 20260505101803 | 72 | 130 | 0.9 | 3.5 | 0.00 | 0.00 | 0.00 | 91 | 1011.7 |
| 20260505101704 | 72 | 133 | 0.9 | 3.5 | 0.00 | 0.00 | 0.00 | 91 | 1011.8 |
| 20260505101602 | 72 | 133 | 1.7 | 3.5 | 0.00 | 0.00 | 0.00 | 91 | 1011.8 |
| 20260505101502 | 72 | 133 | 1.7 | 3.5 | 0.00 | 0.00 | 0.00 | 91 | 1011.9 |
| 20260505101405 | 72 | 186 | 0.9 | 2.6 | 0.00 | 0.00 | 0.00 | 91 | 1011.9 |
| 20260505101303 | 72 | 212 | 0.0 | 2.6 | 0.00 | 0.00 | 0.00 | 91 | 1011.9 |
| 20260505101202 | 72 | 212 | 0.9 | 2.6 | 0.00 | 0.00 | 0.00 | 91 | 1011.9 |
| 20260505101102 | 72 | 212 | 0.9 | 2.6 | 0.00 | 0.00 | 0.00 | 91 | 1011.8 |
| 20260505101004 | 72 | 212 | 0.9 | 2.6 | 0.00 | 0.00 | 0.00 | 91 | 1012.0 |
| 20260505100903 | 72 | 212 | 0.9 | 2.6 | 0.00 | 0.00 | 0.00 | 91 | 1011.9 |
| 20260505100802 | 72 | 210 | 0.9 | 2.6 | 0.00 | 0.00 | 0.00 | 91 | 1012.0 |
| 20260505100703 | 72 | 123 | 0.9 | 2.6 | 0.00 | 0.00 | 0.00 | 91 | 1011.9 |
| 20260505100558 | 72 | 190 | 0.9 | 2.6 | 0.00 | 0.00 | 0.00 | 91 | 1011.9 |
| 20260505100458 | 72 | 192 | 1.7 | 2.6 | 0.00 | 0.00 | 0.00 | 91 | 1011.9 |
| 20260505100355 | 72 | 213 | 1.7 | 3.5 | 0.00 | 0.00 | 0.00 | 91 | 1011.9 |
| 20260505100254 | 72 | 120 | 0.9 | 3.5 | 0.00 | 0.00 | 0.00 | 91 | 1011.9 |
| 20260505100154 | 72 | 118 | 0.9 | 3.5 | 0.00 | 0.00 | 0.00 | 91 | 1011.9 |
| 20260505100053 | 72 | 117 | 0.9 | 3.5 | 0.00 | 0.00 | 0.00 | 91 | 1011.9 |
| 20260505095950 | 72 | 118 | 0.9 | 3.5 | 0.00 | 0.00 | 0.00 | 91 | 1011.8 |
| 20260505095848 | 72 | 118 | 0.9 | 3.5 | 0.00 | 0.00 | 0.00 | 91 | 1011.9 |
| 20260505095746 | 72 | 99 | 0.9 | 3.5 | 0.00 | 0.00 | 0.00 | 91 | 1011.9 |
| 20260505095645 | 72 | 99 | 0.9 | 3.5 | 0.00 | 0.00 | 0.00 | 91 | 1011.9 |
| 20260505095543 | 72 | 94 | 1.7 | 3.5 | 0.00 | 0.00 | 0.00 | 91 | 1011.8 |
| 20260505095442 | 72 | 125 | 0.9 | 3.5 | 0.00 | 0.00 | 0.00 | 91 | 1011.8 |
| 20260505095340 | 72 | 13 | 0.0 | 2.6 | 0.00 | 0.00 | 0.00 | 91 | 1011.9 |
| 20260505095240 | 72 | 13 | 0.0 | 2.6 | 0.00 | 0.00 | 0.00 | 91 | 1011.8 |
| 20260505095138 | 72 | 13 | 0.9 | 2.6 | 0.00 | 0.00 | 0.00 | 91 | 1011.9 |
| 20260505095036 | 72 | 169 | 0.9 | 2.6 | 0.00 | 0.00 | 0.00 | 91 | 1011.9 |
| 20260505094934 | 72 | 138 | 0.9 | 1.7 | 0.00 | 0.00 | 0.00 | 91 | 1011.9 |
| 20260505094834 | 72 | 138 | 0.9 | 1.7 | 0.00 | 0.00 | 0.00 | 91 | 1011.8 |
| 20260505094730 | 72 | 138 | 0.0 | 2.6 | 0.00 | 0.00 | 0.00 | 91 | 1011.8 |
| 20260505094631 | 72 | 138 | 0.0 | 2.6 | 0.00 | 0.00 | 0.00 | 91 | 1011.9 |
| 20260505094532 | 72 | 138 | 0.9 | 2.6 | 0.00 | 0.00 | 0.00 | 91 | 1011.8 |
| 20260505094431 | 72 | 138 | 0.9 | 2.6 | 0.00 | 0.00 | 0.00 | 91 | 1011.9 |
| 20260505094332 | 72 | 151 | 0.9 | 2.6 | 0.00 | 0.00 | 0.00 | 91 | 1011.9 |
| 20260505094231 | 72 | 152 | 0.9 | 2.6 | 0.00 | 0.00 | 0.00 | 91 | 1011.9 |
| 20260505094132 | 72 | 152 | 0.9 | 2.6 | 0.00 | 0.00 | 0.00 | 91 | 1011.9 |
| 20260505094031 | 72 | 159 | 0.9 | 2.6 | 0.00 | 0.00 | 0.00 | 91 | 1011.9 |
| 20260505093932 | 72 | 164 | 0.9 | 2.6 | 0.00 | 0.00 | 0.00 | 91 | 1011.9 |
| 20260505093833 | 72 | 164 | 0.9 | 2.6 | 0.00 | 0.00 | 0.00 | 91 | 1011.9 |
| 20260505093731 | 72 | 38 | 0.9 | 2.6 | 0.00 | 0.00 | 0.00 | 91 | 1011.9 |
| 20260505093631 | 72 | 38 | 0.9 | 2.6 | 0.00 | 0.00 | 0.00 | 91 | 1011.9 |
| 20260505093533 | 72 | 125 | 0.9 | 2.6 | 0.00 | 0.00 | 0.00 | 91 | 1011.9 |
| 20260505093433 | 72 | 125 | 0.9 | 2.6 | 0.00 | 0.00 | 0.00 | 91 | 1011.9 |
| 20260505093328 | 72 | 125 | 0.9 | 2.6 | 0.00 | 0.00 | 0.00 | 91 | 1011.9 |
| 20260505093228 | 72 | 128 | 0.9 | 2.6 | 0.00 | 0.00 | 0.00 | 91 | 1011.9 |
| 20260505093128 | 72 | 121 | 0.9 | 2.6 | 0.00 | 0.00 | 0.00 | 91 | 1012.0 |
| 20260505093025 | 72 | 114 | 0.9 | 2.6 | 0.00 | 0.00 | 0.00 | 91 | 1011.9 |
| 20260505092921 | 72 | 185 | 0.0 | 2.6 | 0.00 | 0.00 | 0.00 | 91 | 1012.0 |
| 20260505092819 | 72 | 185 | 0.9 | 2.6 | 0.00 | 0.00 | 0.00 | 91 | 1011.9 |
| 20260505092720 | 72 | 185 | 0.9 | 2.6 | 0.00 | 0.00 | 0.00 | 91 | 1011.9 |
| 20260505092619 | 72 | 319 | 0.9 | 2.6 | 0.00 | 0.00 | 0.00 | 91 | 1012.0 |
| 20260505092520 | 72 | 309 | 0.9 | 1.7 | 0.00 | 0.00 | 0.00 | 91 | 1012.0 |
| 20260505092419 | 72 | 237 | 0.0 | 2.6 | 0.00 | 0.00 | 0.00 | 91 | 1012.0 |
| 20260505092319 | 72 | 269 | 0.0 | 2.6 | 0.00 | 0.00 | 0.00 | 91 | 1012.0 |
| 20260505092221 | 71 | 79 | 0.0 | 2.6 | 0.00 | 0.00 | 0.00 | 91 | 1012.1 |
| 20260505092120 | 71 | 79 | 0.0 | 2.6 | 0.00 | 0.00 | 0.00 | 91 | 1012.1 |
| 20260505092020 | 71 | 79 | 0.9 | 2.6 | 0.00 | 0.00 | 0.00 | 91 | 1012.0 |
| 20260505091919 | 71 | 58 | 0.0 | 2.6 | 0.00 | 0.00 | 0.00 | 91 | 1012.0 |
| 20260505091819 | 71 | 54 | 0.9 | 2.6 | 0.00 | 0.00 | 0.00 | 91 | 1012.0 |
| 20260505091720 | 71 | 54 | 0.9 | 2.6 | 0.00 | 0.00 | 0.00 | 91 | 1012.0 |
| 20260505091619 | 71 | 54 | 0.9 | 2.6 | 0.00 | 0.00 | 0.00 | 91 | 1012.0 |
| 20260505091522 | 71 | 54 | 0.9 | 2.6 | 0.00 | 0.00 | 0.00 | 91 | 1012.0 |
| 20260505091420 | 71 | 54 | 0.9 | 2.6 | 0.00 | 0.00 | 0.00 | 91 | 1012.0 |
| 20260505091320 | 71 | 54 | 1.7 | 2.6 | 0.00 | 0.00 | 0.00 | 91 | 1012.1 |
| 20260505091220 | 71 | 125 | 1.7 | 2.6 | 0.00 | 0.00 | 0.00 | 91 | 1012.0 |
| 20260505091120 | 71 | 125 | 0.9 | 2.6 | 0.00 | 0.00 | 0.00 | 91 | 1012.0 |
| 20260505091020 | 71 | 121 | 0.0 | 2.6 | 0.00 | 0.00 | 0.00 | 91 | 1012.1 |
| 20260505090920 | 71 | 121 | 0.0 | 2.6 | 0.00 | 0.00 | 0.00 | 91 | 1012.1 |
| 20260505090820 | 71 | 121 | 0.9 | 2.6 | 0.00 | 0.00 | 0.00 | 91 | 1012.1 |
| 20260505090719 | 71 | 121 | 0.9 | 2.6 | 0.00 | 0.00 | 0.00 | 91 | 1012.1 |
| 20260505090619 | 71 | 121 | 0.0 | 2.6 | 0.00 | 0.00 | 0.00 | 91 | 1012.1 |
| 20260505090519 | 71 | 123 | 0.9 | 2.6 | 0.00 | 0.00 | 0.00 | 91 | 1012.1 |
| 20260505090419 | 71 | 123 | 1.7 | 2.6 | 0.00 | 0.00 | 0.00 | 91 | 1012.1 |
| 20260505090320 | 71 | 123 | 0.0 | 1.7 | 0.00 | 0.00 | 0.00 | 91 | 1012.1 |
| 20260505090220 | 71 | 169 | 0.0 | 1.7 | 0.00 | 0.00 | 0.00 | 91 | 1012.1 |
| 20260505090120 | 71 | 169 | 0.0 | 1.7 | 0.00 | 0.00 | 0.00 | 91 | 1012.1 |
| 20260505090019 | 71 | 169 | 0.0 | 1.7 | 0.00 | 0.00 | 0.00 | 91 | 1012.2 |
| 20260505085920 | 71 | 169 | 0.0 | 1.7 | 0.00 | 0.00 | 0.00 | 91 | 1012.2 |
| 20260505085820 | 71 | 169 | 0.0 | 1.7 | 0.00 | 0.00 | 0.00 | 91 | 1012.2 |
| 20260505085712 | 71 | 169 | 0.0 | 1.7 | 0.00 | 0.00 | 0.00 | 91 | 1012.1 |
| 20260505085610 | 71 | 169 | 0.0 | 1.7 | 0.00 | 0.00 | 0.00 | 91 | 1012.1 |
| 20260505085505 | 71 | 169 | 0.9 | 1.7 | 0.00 | 0.00 | 0.00 | 91 | 1012.0 |
| 20260505085404 | 71 | 169 | 0.9 | 1.7 | 0.00 | 0.00 | 0.00 | 91 | 1012.1 |
| 20260505085304 | 71 | 171 | 0.9 | 1.7 | 0.00 | 0.00 | 0.00 | 91 | 1012.0 |
| 20260505085203 | 71 | 171 | 0.9 | 1.7 | 0.00 | 0.00 | 0.00 | 91 | 1012.1 |
| 20260505085103 | 71 | 171 | 0.9 | 2.6 | 0.00 | 0.00 | 0.00 | 91 | 1012.0 |
| 20260505085004 | 71 | 171 | 0.9 | 2.6 | 0.00 | 0.00 | 0.00 | 91 | 1012.0 |
| 20260505084902 | 71 | 171 | 0.9 | 2.6 | 0.00 | 0.00 | 0.00 | 91 | 1012.0 |
| 20260505084803 | 71 | 171 | 0.0 | 2.6 | 0.00 | 0.00 | 0.00 | 91 | 1012.0 |
| 20260505084703 | 71 | 171 | 0.0 | 2.6 | 0.00 | 0.00 | 0.00 | 91 | 1011.9 |
| 20260505084603 | 71 | 171 | 0.9 | 2.6 | 0.00 | 0.00 | 0.00 | 91 | 1012.0 |
| 20260505084502 | 71 | 171 | 0.9 | 2.6 | 0.00 | 0.00 | 0.00 | 91 | 1012.0 |
| 20260505084403 | 71 | 113 | 0.9 | 2.6 | 0.00 | 0.00 | 0.00 | 91 | 1012.0 |
| 20260505084302 | 71 | 113 | 0.9 | 2.6 | 0.00 | 0.00 | 0.00 | 91 | 1012.0 |
| 20260505084202 | 71 | 113 | 0.9 | 2.6 | 0.00 | 0.00 | 0.00 | 91 | 1012.0 |
| 20260505084102 | 71 | 114 | 0.9 | 2.6 | 0.00 | 0.00 | 0.00 | 91 | 1012.1 |
| 20260505084004 | 71 | 107 | 0.0 | 2.6 | 0.00 | 0.00 | 0.00 | 91 | 1012.1 |
| 20260505083903 | 71 | 107 | 0.0 | 2.6 | 0.00 | 0.00 | 0.00 | 91 | 1012.1 |
| 20260505083802 | 71 | 107 | 0.9 | 2.6 | 0.00 | 0.00 | 0.00 | 91 | 1012.1 |
| 20260505083704 | 71 | 135 | 0.9 | 2.6 | 0.00 | 0.00 | 0.00 | 91 | 1012.2 |
| 20260505083602 | 71 | 135 | 0.9 | 2.6 | 0.00 | 0.00 | 0.00 | 90 | 1012.3 |
| 20260505083502 | 71 | 116 | 0.0 | 0.9 | 0.00 | 0.00 | 0.00 | 90 | 1012.2 |
| 20260505083402 | 71 | 116 | 0.0 | 0.9 | 0.00 | 0.00 | 0.00 | 90 | 1012.2 |
| 20260505083302 | 71 | 37 | 0.0 | 0.9 | 0.00 | 0.00 | 0.00 | 90 | 1012.2 |
| 20260505083202 | 71 | 37 | 0.0 | 1.7 | 0.00 | 0.00 | 0.00 | 90 | 1012.2 |
| 20260505083103 | 71 | 37 | 0.0 | 1.7 | 0.00 | 0.00 | 0.00 | 90 | 1012.2 |
| 20260505083002 | 71 | 37 | 0.0 | 2.6 | 0.00 | 0.00 | 0.00 | 90 | 1012.3 |
| 20260505082901 | 71 | 314 | 0.0 | 2.6 | 0.00 | 0.00 | 0.00 | 90 | 1012.3 |
| 20260505082804 | 71 | 313 | 0.0 | 2.6 | 0.00 | 0.00 | 0.00 | 90 | 1012.3 |
| 20260505082703 | 71 | 313 | 0.0 | 2.6 | 0.00 | 0.00 | 0.00 | 90 | 1012.4 |
| 20260505082604 | 71 | 313 | 0.0 | 2.6 | 0.00 | 0.00 | 0.00 | 90 | 1012.4 |
| 20260505082502 | 71 | 313 | 0.0 | 2.6 | 0.00 | 0.00 | 0.00 | 90 | 1012.4 |
| 20260505082404 | 71 | 313 | 0.0 | 2.6 | 0.00 | 0.00 | 0.00 | 90 | 1012.4 |
| 20260505082304 | 71 | 313 | 0.0 | 2.6 | 0.00 | 0.00 | 0.00 | 90 | 1012.4 |
| 20260505082202 | 71 | 313 | 0.9 | 2.6 | 0.00 | 0.00 | 0.00 | 90 | 1012.4 |
| 20260505082103 | 71 | 313 | 0.9 | 3.5 | 0.00 | 0.00 | 0.00 | 90 | 1012.3 |
| 20260505082002 | 71 | 179 | 0.9 | 3.5 | 0.00 | 0.00 | 0.00 | 90 | 1012.3 |
| 20260505081903 | 71 | 193 | 0.9 | 3.5 | 0.00 | 0.00 | 0.00 | 90 | 1012.3 |
| 20260505081802 | 71 | 197 | 0.9 | 3.5 | 0.00 | 0.00 | 0.00 | 90 | 1012.4 |
| 20260505081703 | 71 | 197 | 0.9 | 3.5 | 0.00 | 0.00 | 0.00 | 90 | 1012.4 |
| 20260505081602 | 71 | 227 | 0.9 | 3.5 | 0.00 | 0.00 | 0.00 | 90 | 1012.4 |
| 20260505081502 | 71 | 227 | 0.9 | 3.5 | 0.00 | 0.00 | 0.00 | 90 | 1012.4 |
| 20260505081404 | 71 | 257 | 0.0 | 3.5 | 0.00 | 0.00 | 0.00 | 90 | 1012.5 |
| 20260505081304 | 71 | 259 | 0.9 | 3.5 | 0.00 | 0.00 | 0.00 | 90 | 1012.5 |
| 20260505081202 | 71 | 258 | 0.9 | 3.5 | 0.00 | 0.00 | 0.00 | 90 | 1012.5 |
| 20260505081102 | 71 | 272 | 0.9 | 3.5 | 0.00 | 0.00 | 0.00 | 90 | 1012.5 |
| 20260505081004 | 71 | 134 | 0.9 | 2.6 | 0.00 | 0.00 | 0.00 | 90 | 1012.4 |
| 20260505080902 | 71 | 134 | 0.9 | 2.6 | 0.00 | 0.00 | 0.00 | 90 | 1012.5 |
| 20260505080802 | 71 | 138 | 0.9 | 2.6 | 0.00 | 0.00 | 0.00 | 90 | 1012.5 |
| 20260505080702 | 71 | 138 | 0.9 | 2.6 | 0.00 | 0.00 | 0.00 | 90 | 1012.5 |
| 20260505080603 | 71 | 138 | 0.9 | 2.6 | 0.00 | 0.00 | 0.00 | 90 | 1012.4 |
| 20260505080505 | 71 | 137 | 0.9 | 2.6 | 0.00 | 0.00 | 0.00 | 90 | 1012.4 |
| 20260505080404 | 71 | 137 | 0.9 | 2.6 | 0.00 | 0.00 | 0.00 | 90 | 1012.4 |
| 20260505080303 | 71 | 138 | 0.9 | 2.6 | 0.00 | 0.00 | 0.00 | 90 | 1012.4 |
| 20260505080203 | 71 | 206 | 0.0 | 2.6 | 0.00 | 0.00 | 0.00 | 90 | 1012.4 |
| 20260505080103 | 71 | 206 | 0.9 | 2.6 | 0.00 | 0.00 | 0.00 | 90 | 1012.5 |
| 20260505080004 | 71 | 206 | 0.9 | 2.6 | 0.00 | 0.00 | 0.00 | 90 | 1012.5 |
| 20260505075903 | 71 | 199 | 0.9 | 2.6 | 0.00 | 0.00 | 0.00 | 90 | 1012.5 |
| 20260505075803 | 71 | 99 | 0.9 | 2.6 | 0.00 | 0.00 | 0.00 | 90 | 1012.4 |
| 20260505075704 | 71 | 99 | 0.9 | 2.6 | 0.00 | 0.00 | 0.00 | 90 | 1012.5 |
| 20260505075603 | 71 | 99 | 0.9 | 2.6 | 0.00 | 0.00 | 0.00 | 90 | 1012.5 |
| 20260505075500 | 71 | 103 | 0.9 | 2.6 | 0.00 | 0.00 | 0.00 | 90 | 1012.5 |
| 20260505075359 | 71 | 103 | 0.9 | 3.5 | 0.00 | 0.00 | 0.00 | 90 | 1012.5 |
| 20260505075258 | 71 | 87 | 0.9 | 3.5 | 0.00 | 0.00 | 0.00 | 90 | 1012.6 |
| 20260505075155 | 71 | 337 | 0.9 | 3.5 | 0.00 | 0.00 | 0.00 | 90 | 1012.6 |
| 20260505075054 | 71 | 337 | 0.9 | 3.5 | 0.00 | 0.00 | 0.00 | 90 | 1012.6 |
| 20260505074954 | 71 | 202 | 0.9 | 3.5 | 0.00 | 0.00 | 0.00 | 90 | 1012.6 |
| 20260505074852 | 71 | 202 | 0.9 | 3.5 | 0.00 | 0.00 | 0.00 | 89 | 1012.6 |
| 20260505074749 | 71 | 202 | 0.9 | 3.5 | 0.00 | 0.00 | 0.00 | 89 | 1012.6 |
| 20260505074648 | 71 | 127 | 0.9 | 3.5 | 0.00 | 0.00 | 0.00 | 89 | 1012.6 |
| 20260505074545 | 71 | 134 | 1.7 | 3.5 | 0.00 | 0.00 | 0.00 | 89 | 1012.6 |
| 20260505074446 | 71 | 134 | 1.7 | 5.2 | 0.00 | 0.00 | 0.00 | 89 | 1012.6 |
| 20260505074345 | 71 | 172 | 1.7 | 5.2 | 0.00 | 0.00 | 0.00 | 89 | 1012.5 |
| 20260505074242 | 71 | 164 | 0.9 | 5.2 | 0.00 | 0.00 | 0.00 | 89 | 1012.5 |
| 20260505074141 | 71 | 164 | 0.9 | 5.2 | 0.00 | 0.00 | 0.00 | 89 | 1012.4 |
| 20260505074039 | 71 | 166 | 0.9 | 5.2 | 0.00 | 0.00 | 0.00 | 89 | 1012.5 |
| 20260505073937 | 71 | 161 | 0.9 | 5.2 | 0.00 | 0.00 | 0.00 | 89 | 1012.5 |
| 20260505073837 | 71 | 144 | 0.9 | 5.2 | 0.00 | 0.00 | 0.00 | 89 | 1012.5 |
| 20260505073735 | 71 | 144 | 0.9 | 5.2 | 0.00 | 0.00 | 0.00 | 89 | 1012.6 |
| 20260505073633 | 71 | 144 | 1.7 | 5.2 | 0.00 | 0.00 | 0.00 | 89 | 1012.6 |
| 20260505073531 | 71 | 138 | 1.7 | 3.5 | 0.00 | 0.00 | 0.00 | 89 | 1012.5 |
| 20260505073431 | 71 | 120 | 0.9 | 2.6 | 0.00 | 0.00 | 0.00 | 89 | 1012.6 |
| 20260505073331 | 71 | 121 | 0.9 | 2.6 | 0.00 | 0.00 | 0.00 | 89 | 1012.6 |
| 20260505073234 | 71 | 121 | 0.9 | 2.6 | 0.00 | 0.00 | 0.00 | 89 | 1012.6 |
| 20260505073132 | 71 | 121 | 0.9 | 3.5 | 0.00 | 0.00 | 0.00 | 89 | 1012.6 |
| 20260505073032 | 71 | 121 | 0.9 | 3.5 | 0.00 | 0.00 | 0.00 | 89 | 1012.7 |
| 20260505072932 | 71 | 124 | 0.9 | 3.5 | 0.00 | 0.00 | 0.00 | 89 | 1012.7 |
| 20260505072833 | 71 | 127 | 0.9 | 3.5 | 0.00 | 0.00 | 0.00 | 89 | 1012.7 |
| 20260505072731 | 71 | 128 | 0.9 | 3.5 | 0.00 | 0.00 | 0.00 | 89 | 1012.7 |
| 20260505072630 | 71 | 131 | 0.9 | 3.5 | 0.00 | 0.00 | 0.00 | 89 | 1012.7 |
| 20260505072528 | 71 | 131 | 1.7 | 3.5 | 0.00 | 0.00 | 0.00 | 89 | 1012.8 |
| 20260505072427 | 71 | 133 | 0.9 | 3.5 | 0.00 | 0.00 | 0.00 | 89 | 1012.8 |
| 20260505072324 | 71 | 137 | 1.7 | 3.5 | 0.00 | 0.00 | 0.00 | 89 | 1012.8 |
| 20260505072223 | 71 | 144 | 2.6 | 3.5 | 0.00 | 0.00 | 0.00 | 89 | 1012.8 |
| 20260505072121 | 71 | 144 | 1.7 | 3.5 | 0.00 | 0.00 | 0.00 | 89 | 1012.8 |
| 20260505072020 | 71 | 248 | 0.9 | 3.5 | 0.00 | 0.00 | 0.00 | 89 | 1012.8 |
| 20260505071919 | 71 | 245 | 0.9 | 3.5 | 0.00 | 0.00 | 0.00 | 89 | 1012.8 |
| 20260505071818 | 71 | 244 | 0.9 | 3.5 | 0.00 | 0.00 | 0.00 | 89 | 1012.9 |
| 20260505071717 | 71 | 309 | 0.9 | 3.5 | 0.00 | 0.00 | 0.00 | 89 | 1012.8 |
| 20260505071617 | 71 | 140 | 0.9 | 3.5 | 0.00 | 0.00 | 0.00 | 89 | 1012.9 |
| 20260505071518 | 71 | 117 | 1.7 | 3.5 | 0.00 | 0.00 | 0.00 | 89 | 1012.9 |
| 20260505071416 | 71 | 117 | 1.7 | 3.5 | 0.00 | 0.00 | 0.00 | 89 | 1012.8 |
| 20260505071316 | 71 | 120 | 1.7 | 3.5 | 0.00 | 0.00 | 0.00 | 89 | 1012.8 |
| 20260505071216 | 71 | 123 | 1.7 | 4.3 | 0.00 | 0.00 | 0.00 | 89 | 1012.9 |
| 20260505071117 | 71 | 289 | 1.7 | 4.3 | 0.00 | 0.00 | 0.00 | 89 | 1012.8 |
| 20260505071018 | 71 | 93 | 0.9 | 4.3 | 0.00 | 0.00 | 0.00 | 89 | 1012.8 |
| 20260505070917 | 71 | 92 | 1.7 | 4.3 | 0.00 | 0.00 | 0.00 | 89 | 1012.8 |
| 20260505070817 | 71 | 111 | 1.7 | 4.3 | 0.00 | 0.00 | 0.00 | 89 | 1012.8 |
| 20260505070717 | 71 | 164 | 0.9 | 4.3 | 0.00 | 0.00 | 0.00 | 89 | 1012.9 |
| 20260505070616 | 71 | 155 | 0.9 | 4.3 | 0.00 | 0.00 | 0.00 | 89 | 1012.8 |
| 20260505070517 | 71 | 155 | 0.9 | 4.3 | 0.00 | 0.00 | 0.00 | 89 | 1012.8 |
| 20260505070416 | 71 | 159 | 1.7 | 4.3 | 0.00 | 0.00 | 0.00 | 89 | 1012.8 |
| 20260505070317 | 71 | 148 | 0.9 | 4.3 | 0.00 | 0.00 | 0.00 | 89 | 1012.8 |
| 20260505070217 | 71 | 269 | 0.9 | 3.5 | 0.00 | 0.00 | 0.00 | 89 | 1012.9 |
| 20260505070117 | 71 | 271 | 1.7 | 3.5 | 0.00 | 0.00 | 0.00 | 89 | 1012.9 |
| 20260505070017 | 71 | 28 | 0.9 | 2.6 | 0.00 | 0.00 | 0.00 | 89 | 1012.9 |
| 20260505065916 | 71 | 78 | 0.9 | 2.6 | 0.00 | 0.00 | 0.00 | 89 | 1012.9 |
| 20260505065817 | 71 | 45 | 0.9 | 2.6 | 0.00 | 0.00 | 0.00 | 89 | 1012.9 |
| 20260505065716 | 71 | 104 | 0.9 | 2.6 | 0.00 | 0.00 | 0.00 | 89 | 1012.8 |
| 20260505065616 | 71 | 6 | 0.9 | 2.6 | 0.00 | 0.00 | 0.00 | 89 | 1012.9 |
| 20260505065516 | 71 | 31 | 1.7 | 4.3 | 0.00 | 0.00 | 0.00 | 89 | 1012.9 |
| 20260505065418 | 71 | 31 | 1.7 | 4.3 | 0.00 | 0.00 | 0.00 | 88 | 1012.9 |
| 20260505065316 | 71 | 4 | 1.7 | 4.3 | 0.00 | 0.00 | 0.00 | 88 | 1012.9 |
| 20260505065216 | 71 | 172 | 0.9 | 4.3 | 0.00 | 0.00 | 0.00 | 88 | 1012.9 |
| 20260505065118 | 71 | 117 | 0.9 | 4.3 | 0.00 | 0.00 | 0.00 | 88 | 1012.9 |
| 20260505065017 | 71 | 118 | 0.9 | 4.3 | 0.00 | 0.00 | 0.00 | 88 | 1012.9 |
| 20260505064916 | 71 | 118 | 0.9 | 4.3 | 0.00 | 0.00 | 0.00 | 88 | 1013.0 |
| 20260505064816 | 71 | 118 | 0.9 | 4.3 | 0.00 | 0.00 | 0.00 | 88 | 1013.0 |
| 20260505064717 | 71 | 118 | 1.7 | 4.3 | 0.00 | 0.00 | 0.00 | 88 | 1013.0 |
| 20260505064617 | 71 | 118 | 1.7 | 4.3 | 0.00 | 0.00 | 0.00 | 88 | 1013.0 |
| 20260505064516 | 71 | 73 | 0.9 | 2.6 | 0.00 | 0.00 | 0.00 | 88 | 1013.1 |
| 20260505064418 | 71 | 78 | 0.9 | 2.6 | 0.00 | 0.00 | 0.00 | 88 | 1013.1 |
| 20260505064315 | 71 | 144 | 0.9 | 3.5 | 0.00 | 0.00 | 0.00 | 88 | 1013.1 |
| 20260505064216 | 71 | 144 | 0.9 | 3.5 | 0.00 | 0.00 | 0.00 | 88 | 1013.1 |
| 20260505064118 | 71 | 144 | 0.9 | 3.5 | 0.00 | 0.00 | 0.00 | 88 | 1013.1 |
| 20260505064017 | 71 | 144 | 0.0 | 3.5 | 0.00 | 0.00 | 0.00 | 88 | 1013.2 |
| 20260505063916 | 71 | 155 | 0.0 | 3.5 | 0.00 | 0.00 | 0.00 | 88 | 1013.2 |
| 20260505063816 | 71 | 155 | 0.9 | 3.5 | 0.00 | 0.00 | 0.00 | 88 | 1013.2 |
| 20260505063716 | 71 | 155 | 0.9 | 3.5 | 0.00 | 0.00 | 0.00 | 88 | 1013.2 |
| 20260505063616 | 71 | 157 | 0.9 | 3.5 | 0.00 | 0.00 | 0.00 | 88 | 1013.2 |
| 20260505063516 | 71 | 173 | 1.7 | 3.5 | 0.00 | 0.00 | 0.00 | 88 | 1013.1 |
| 20260505063416 | 71 | 257 | 2.6 | 3.5 | 0.00 | 0.00 | 0.00 | 88 | 1013.2 |
| 20260505063317 | 71 | 124 | 1.7 | 3.5 | 0.00 | 0.00 | 0.00 | 88 | 1013.2 |
| 20260505063215 | 71 | 351 | 0.9 | 2.6 | 0.00 | 0.00 | 0.00 | 88 | 1013.3 |
| 20260505063115 | 71 | 128 | 0.9 | 2.6 | 0.00 | 0.00 | 0.00 | 88 | 1013.4 |
| 20260505063017 | 71 | 158 | 1.7 | 2.6 | 0.00 | 0.00 | 0.00 | 88 | 1013.4 |
| 20260505062915 | 71 | 133 | 1.7 | 2.6 | 0.00 | 0.00 | 0.00 | 88 | 1013.3 |
| 20260505062816 | 71 | 220 | 0.9 | 2.6 | 0.00 | 0.00 | 0.00 | 88 | 1013.3 |
| 20260505062716 | 71 | 111 | 0.0 | 1.7 | 0.00 | 0.00 | 0.00 | 88 | 1013.3 |
| 20260505062618 | 71 | 111 | 0.0 | 2.6 | 0.00 | 0.00 | 0.00 | 88 | 1013.3 |
| 20260505062516 | 71 | 111 | 0.0 | 4.3 | 0.00 | 0.00 | 0.00 | 88 | 1013.3 |
| 20260505062415 | 71 | 113 | 0.0 | 4.3 | 0.00 | 0.00 | 0.00 | 88 | 1013.4 |
| 20260505062316 | 71 | 113 | 0.9 | 4.3 | 0.00 | 0.00 | 0.00 | 88 | 1013.3 |
| 20260505062216 | 71 | 111 | 0.9 | 4.3 | 0.00 | 0.00 | 0.00 | 88 | 1013.4 |
| 20260505062115 | 71 | 113 | 0.9 | 4.3 | 0.00 | 0.00 | 0.00 | 88 | 1013.4 |
| 20260505062015 | 71 | 96 | 0.0 | 4.3 | 0.00 | 0.00 | 0.00 | 88 | 1013.4 |
| 20260505061916 | 71 | 96 | 0.0 | 4.3 | 0.00 | 0.00 | 0.00 | 88 | 1013.5 |
| 20260505061815 | 71 | 96 | 0.9 | 4.3 | 0.00 | 0.00 | 0.00 | 88 | 1013.5 |
| 20260505061715 | 71 | 96 | 1.7 | 4.3 | 0.00 | 0.00 | 0.00 | 88 | 1013.5 |
| 20260505061616 | 71 | 124 | 1.7 | 4.3 | 0.00 | 0.00 | 0.00 | 88 | 1013.5 |
| 20260505061516 | 71 | 299 | 1.7 | 2.6 | 0.00 | 0.00 | 0.00 | 88 | 1013.5 |
| 20260505061416 | 71 | 303 | 0.9 | 2.6 | 0.00 | 0.00 | 0.00 | 88 | 1013.5 |
| 20260505061316 | 71 | 154 | 0.9 | 2.6 | 0.00 | 0.00 | 0.00 | 88 | 1013.6 |
| 20260505061216 | 71 | 161 | 0.9 | 2.6 | 0.00 | 0.00 | 0.00 | 88 | 1013.5 |
| 20260505061116 | 71 | 166 | 0.9 | 2.6 | 0.00 | 0.00 | 0.00 | 88 | 1013.6 |
| 20260505061016 | 71 | 183 | 0.9 | 2.6 | 0.00 | 0.00 | 0.00 | 88 | 1013.6 |
| 20260505060916 | 71 | 116 | 1.7 | 2.6 | 0.00 | 0.00 | 0.00 | 88 | 1013.6 |
| 20260505060815 | 71 | 118 | 0.9 | 2.6 | 0.00 | 0.00 | 0.00 | 87 | 1013.5 |
| 20260505060716 | 71 | 116 | 0.0 | 2.6 | 0.00 | 0.00 | 0.00 | 87 | 1013.5 |
| 20260505060616 | 71 | 118 | 0.9 | 2.6 | 0.00 | 0.00 | 0.00 | 87 | 1013.5 |
| 20260505060515 | 71 | 118 | 1.7 | 3.5 | 0.00 | 0.00 | 0.00 | 87 | 1013.6 |
| 20260505060414 | 71 | 38 | 0.9 | 3.5 | 0.00 | 0.00 | 0.00 | 88 | 1013.5 |
| 20260505060315 | 71 | 34 | 0.9 | 3.5 | 0.00 | 0.00 | 0.00 | 88 | 1013.5 |
| 20260505060217 | 71 | 30 | 0.9 | 3.5 | 0.00 | 0.00 | 0.00 | 88 | 1013.6 |
| 20260505060115 | 71 | 30 | 0.9 | 3.5 | 0.00 | 0.00 | 0.00 | 87 | 1013.5 |
| 20260505060016 | 71 | 171 | 0.9 | 4.3 | 0.00 | 0.00 | 0.00 | 87 | 1013.6 |
| 20260505055916 | 71 | 179 | 0.9 | 4.3 | 0.00 | 0.00 | 0.00 | 87 | 1013.7 |
| 20260505055816 | 71 | 62 | 0.9 | 4.3 | 0.00 | 0.00 | 0.00 | 88 | 1013.7 |
| 20260505055716 | 71 | 62 | 1.7 | 4.3 | 0.00 | 0.00 | 0.00 | 87 | 1013.6 |
| 20260505055617 | 71 | 149 | 1.7 | 4.3 | 0.00 | 0.00 | 0.00 | 87 | 1013.6 |
| 20260505055517 | 71 | 173 | 0.9 | 4.3 | 0.00 | 0.00 | 0.00 | 87 | 1013.6 |
| 20260505055416 | 71 | 130 | 0.9 | 4.3 | 0.00 | 0.00 | 0.00 | 87 | 1013.5 |
| 20260505055313 | 71 | 121 | 0.9 | 4.3 | 0.00 | 0.00 | 0.00 | 87 | 1013.5 |
| 20260505055215 | 71 | 87 | 0.9 | 4.3 | 0.00 | 0.00 | 0.00 | 87 | 1013.5 |
| 20260505055115 | 71 | 85 | 1.7 | 4.3 | 0.00 | 0.00 | 0.00 | 87 | 1013.5 |
| 20260505055015 | 71 | 107 | 1.7 | 4.3 | 0.00 | 0.00 | 0.00 | 87 | 1013.5 |
| 20260505054914 | 71 | 0 | 0.9 | 3.5 | 0.00 | 0.00 | 0.00 | 87 | 1013.6 |
| 20260505054816 | 71 | 0 | 1.7 | 3.5 | 0.00 | 0.00 | 0.00 | 87 | 1013.6 |
| 20260505054715 | 71 | 79 | 0.9 | 3.5 | 0.00 | 0.00 | 0.00 | 87 | 1013.7 |
| 20260505054614 | 71 | 333 | 0.9 | 3.5 | 0.00 | 0.00 | 0.00 | 87 | 1013.7 |
| 20260505054515 | 71 | 313 | 0.9 | 3.5 | 0.00 | 0.00 | 0.00 | 87 | 1013.6 |
| 20260505054415 | 71 | 114 | 0.9 | 3.5 | 0.00 | 0.00 | 0.00 | 87 | 1013.7 |
| 20260505054315 | 71 | 114 | 0.9 | 3.5 | 0.00 | 0.00 | 0.00 | 87 | 1013.8 |
| 20260505054215 | 71 | 120 | 0.9 | 3.5 | 0.00 | 0.00 | 0.00 | 87 | 1013.7 |
| 20260505054115 | 71 | 120 | 0.9 | 3.5 | 0.00 | 0.00 | 0.00 | 87 | 1013.7 |
| 20260505054015 | 71 | 123 | 1.7 | 3.5 | 0.00 | 0.00 | 0.00 | 87 | 1013.7 |
| 20260505053915 | 71 | 138 | 0.9 | 3.5 | 0.00 | 0.00 | 0.00 | 87 | 1013.6 |
| 20260505053816 | 71 | 109 | 0.0 | 2.6 | 0.00 | 0.00 | 0.00 | 87 | 1013.7 |
| 20260505053715 | 71 | 0 | 0.0 | 2.6 | 0.00 | 0.00 | 0.00 | 87 | 1013.8 |
| 20260505053615 | 71 | 0 | 0.9 | 2.6 | 0.00 | 0.00 | 0.00 | 87 | 1013.7 |
| 20260505053514 | 71 | 0 | 1.7 | 2.6 | 0.00 | 0.00 | 0.00 | 87 | 1013.8 |
| 20260505053417 | 71 | 314 | 0.9 | 2.6 | 0.00 | 0.00 | 0.00 | 87 | 1013.8 |
| 20260505053314 | 71 | 121 | 0.0 | 1.7 | 0.00 | 0.00 | 0.00 | 87 | 1013.9 |
| 20260505053214 | 71 | 121 | 0.9 | 4.3 | 0.00 | 0.00 | 0.00 | 87 | 1013.9 |
| 20260505053115 | 71 | 121 | 0.0 | 4.3 | 0.00 | 0.00 | 0.00 | 87 | 1013.9 |
| 20260505053015 | 71 | 121 | 0.9 | 4.3 | 0.00 | 0.00 | 0.00 | 87 | 1014.0 |
| 20260505052914 | 71 | 121 | 0.9 | 4.3 | 0.00 | 0.00 | 0.00 | 87 | 1014.0 |
| 20260505052815 | 71 | 121 | 0.9 | 4.3 | 0.00 | 0.00 | 0.00 | 87 | 1014.0 |
| 20260505052717 | 71 | 123 | 0.9 | 4.3 | 0.00 | 0.00 | 0.00 | 87 | 1013.8 |
| 20260505052614 | 71 | 123 | 0.9 | 4.3 | 0.00 | 0.00 | 0.00 | 87 | 1013.9 |
| 20260505052514 | 71 | 123 | 0.9 | 4.3 | 0.00 | 0.00 | 0.00 | 87 | 1013.9 |
| 20260505052415 | 71 | 240 | 1.7 | 4.3 | 0.00 | 0.00 | 0.00 | 87 | 1014.0 |
| 20260505052314 | 71 | 240 | 0.9 | 4.3 | 0.00 | 0.00 | 0.00 | 87 | 1013.9 |
| 20260505052215 | 71 | 154 | 0.0 | 2.6 | 0.00 | 0.00 | 0.00 | 87 | 1013.9 |
| 20260505052115 | 71 | 154 | 0.9 | 2.6 | 0.00 | 0.00 | 0.00 | 87 | 1013.9 |
| 20260505052016 | 71 | 154 | 1.7 | 2.6 | 0.00 | 0.00 | 0.00 | 87 | 1013.9 |
| 20260505051916 | 71 | 127 | 0.9 | 2.6 | 0.00 | 0.00 | 0.00 | 87 | 1014.0 |
| 20260505051816 | 71 | 128 | 0.9 | 2.6 | 0.00 | 0.00 | 0.00 | 87 | 1013.9 |
| 20260505051716 | 71 | 128 | 0.9 | 2.6 | 0.00 | 0.00 | 0.00 | 87 | 1013.8 |
| 20260505051614 | 71 | 128 | 0.9 | 2.6 | 0.00 | 0.00 | 0.00 | 87 | 1013.9 |
| 20260505051514 | 71 | 134 | 0.9 | 1.7 | 0.00 | 0.00 | 0.00 | 87 | 1013.9 |
| 20260505051414 | 71 | 134 | 0.9 | 1.7 | 0.00 | 0.00 | 0.00 | 87 | 1013.8 |
| 20260505051315 | 71 | 134 | 0.9 | 1.7 | 0.00 | 0.00 | 0.00 | 86 | 1013.9 |
| 20260505051216 | 71 | 147 | 0.9 | 1.7 | 0.00 | 0.00 | 0.00 | 86 | 1013.9 |
| 20260505051115 | 71 | 149 | 0.9 | 2.6 | 0.00 | 0.00 | 0.00 | 86 | 1014.0 |
| 20260505051015 | 71 | 152 | 0.9 | 2.6 | 0.00 | 0.00 | 0.00 | 86 | 1013.9 |
| 20260505050915 | 71 | 154 | 0.9 | 2.6 | 0.00 | 0.00 | 0.00 | 86 | 1013.9 |
| 20260505050813 | 71 | 155 | 0.9 | 2.6 | 0.00 | 0.00 | 0.00 | 86 | 1013.9 |
| 20260505050714 | 71 | 323 | 0.0 | 2.6 | 0.00 | 0.00 | 0.00 | 86 | 1013.8 |
| 20260505050613 | 71 | 323 | 0.0 | 2.6 | 0.00 | 0.00 | 0.00 | 86 | 1013.9 |
| 20260505050515 | 71 | 323 | 0.0 | 2.6 | 0.00 | 0.00 | 0.00 | 85 | 1013.8 |
| 20260505050414 | 71 | 321 | 0.0 | 2.6 | 0.00 | 0.00 | 0.00 | 85 | 1013.9 |
| 20260505050316 | 71 | 321 | 0.9 | 2.6 | 0.00 | 0.00 | 0.00 | 85 | 1013.8 |
| 20260505050213 | 71 | 321 | 1.7 | 2.6 | 0.00 | 0.00 | 0.00 | 85 | 1013.9 |
| 20260505050113 | 71 | 134 | 0.9 | 2.6 | 0.00 | 0.00 | 0.00 | 85 | 1014.0 |
| 20260505041702 | 72 | 140 | 0.9 | 3.5 | 0.00 | 0.00 | 0.00 | 83 | 1013.8 |
| 20260505041602 | 72 | 141 | 0.9 | 3.5 | 0.00 | 0.00 | 0.00 | 83 | 1013.8 |
| 20260505041503 | 72 | 141 | 1.7 | 3.5 | 0.00 | 0.00 | 0.00 | 83 | 1013.9 |
| 20260505041404 | 72 | 138 | 0.9 | 2.6 | 0.00 | 0.00 | 0.00 | 83 | 1013.9 |
| 20260505041302 | 72 | 140 | 0.9 | 2.6 | 0.00 | 0.00 | 0.00 | 83 | 1013.9 |
| 20260505041203 | 72 | 140 | 0.9 | 3.5 | 0.00 | 0.00 | 0.00 | 83 | 1014.0 |
| 20260505041103 | 72 | 144 | 0.9 | 3.5 | 0.00 | 0.00 | 0.00 | 83 | 1014.1 |
| 20260505041001 | 72 | 144 | 0.9 | 3.5 | 0.00 | 0.00 | 0.00 | 83 | 1014.2 |
| 20260505040903 | 72 | 162 | 0.9 | 3.5 | 0.00 | 0.00 | 0.00 | 83 | 1014.2 |
| 20260505040803 | 72 | 45 | 0.9 | 3.5 | 0.00 | 0.00 | 0.00 | 83 | 1014.2 |
| 20260505040703 | 72 | 54 | 0.9 | 3.5 | 0.00 | 0.00 | 0.00 | 83 | 1014.2 |
| 20260505040602 | 72 | 44 | 0.9 | 3.5 | 0.00 | 0.00 | 0.00 | 83 | 1014.3 |
| 20260505040503 | 72 | 44 | 0.9 | 3.5 | 0.00 | 0.00 | 0.00 | 82 | 1014.2 |
| 20260505040403 | 73 | 142 | 0.9 | 4.3 | 0.00 | 0.00 | 0.00 | 82 | 1014.3 |
| 20260505040302 | 73 | 144 | 1.7 | 4.3 | 0.00 | 0.00 | 0.00 | 82 | 1014.3 |
| 20260505040202 | 73 | 182 | 1.7 | 4.3 | 0.00 | 0.00 | 0.00 | 82 | 1014.2 |
| 20260505040103 | 73 | 104 | 1.7 | 4.3 | 0.00 | 0.00 | 0.00 | 82 | 1014.3 |
| 20260505040003 | 73 | 0 | 0.9 | 4.3 | 0.00 | 0.00 | 0.00 | 82 | 1014.1 |
| 20260505035901 | 73 | 0 | 1.7 | 4.3 | 0.00 | 0.00 | 0.00 | 82 | 1014.2 |
| 20260505035802 | 73 | 348 | 1.7 | 4.3 | 0.00 | 0.00 | 0.00 | 82 | 1014.2 |
| 20260505035703 | 73 | 104 | 0.9 | 4.3 | 0.00 | 0.00 | 0.00 | 82 | 1014.1 |
| 20260505035602 | 73 | 106 | 0.9 | 4.3 | 0.00 | 0.00 | 0.00 | 82 | 1014.2 |
| 20260505035502 | 73 | 106 | 1.7 | 4.3 | 0.00 | 0.00 | 0.00 | 82 | 1014.1 |
| 20260505035404 | 73 | 37 | 1.7 | 3.5 | 0.00 | 0.00 | 0.00 | 82 | 1014.1 |
| 20260505035304 | 73 | 103 | 1.7 | 3.5 | 0.00 | 0.00 | 0.00 | 82 | 1014.2 |
| 20260505035203 | 73 | 104 | 1.7 | 3.5 | 0.00 | 0.00 | 0.00 | 82 | 1014.1 |
| 20260505035103 | 73 | 27 | 1.7 | 3.5 | 0.00 | 0.00 | 0.00 | 82 | 1014.2 |
| 20260505035004 | 73 | 25 | 1.7 | 6.1 | 0.00 | 0.00 | 0.00 | 82 | 1014.3 |
| 20260505034904 | 73 | 238 | 0.9 | 6.1 | 0.00 | 0.00 | 0.00 | 82 | 1014.4 |
| 20260505034802 | 73 | 238 | 0.9 | 6.1 | 0.00 | 0.00 | 0.00 | 81 | 1014.4 |
| 20260505034703 | 73 | 124 | 1.7 | 6.1 | 0.00 | 0.00 | 0.00 | 81 | 1014.3 |
| 20260505034602 | 73 | 38 | 1.7 | 6.1 | 0.00 | 0.00 | 0.00 | 81 | 1014.4 |
| 20260505034503 | 73 | 71 | 0.9 | 6.1 | 0.00 | 0.00 | 0.00 | 81 | 1014.4 |
| 20260505034402 | 73 | 68 | 1.7 | 6.1 | 0.00 | 0.00 | 0.00 | 81 | 1014.5 |
| 20260505034303 | 73 | 66 | 1.7 | 6.1 | 0.00 | 0.00 | 0.00 | 81 | 1014.5 |
| 20260505034203 | 73 | 192 | 1.7 | 6.1 | 0.00 | 0.00 | 0.00 | 81 | 1014.3 |
| 20260505034103 | 73 | 109 | 1.7 | 6.1 | 0.00 | 0.00 | 0.00 | 81 | 1014.5 |
| 20260505034002 | 73 | 24 | 0.9 | 5.2 | 0.00 | 0.00 | 0.00 | 81 | 1014.5 |
| 20260505033901 | 73 | 24 | 1.7 | 5.2 | 0.00 | 0.00 | 0.00 | 81 | 1014.5 |
| 20260505033802 | 73 | 175 | 1.7 | 5.2 | 0.00 | 0.00 | 0.00 | 81 | 1014.5 |
| 20260505033700 | 73 | 166 | 1.7 | 5.2 | 0.00 | 0.00 | 0.00 | 81 | 1014.5 |
| 20260505033559 | 73 | 209 | 2.6 | 5.2 | 0.00 | 0.00 | 0.00 | 81 | 1014.5 |
| 20260505033457 | 73 | 351 | 1.7 | 5.2 | 0.00 | 0.00 | 0.00 | 81 | 1014.4 |
| 20260505033359 | 73 | 283 | 1.7 | 6.1 | 0.00 | 0.00 | 0.00 | 81 | 1014.3 |
| 20260505033259 | 73 | 307 | 1.7 | 6.1 | 0.00 | 0.00 | 0.00 | 81 | 1014.4 |
| 20260505033156 | 73 | 125 | 0.9 | 7.8 | 0.00 | 0.00 | 0.00 | 81 | 1014.4 |
| 20260505033054 | 73 | 125 | 2.6 | 7.8 | 0.00 | 0.00 | 0.00 | 81 | 1014.4 |
| 20260505032939 | 73 | 125 | 1.7 | 7.8 | 0.00 | 0.00 | 0.00 | 81 | 1014.3 |
| 20260505032837 | 74 | 80 | 0.9 | 7.8 | 0.00 | 0.00 | 0.00 | 81 | 1014.3 |
| 20260505032737 | 73 | 80 | 1.7 | 7.8 | 0.00 | 0.00 | 0.00 | 81 | 1014.3 |
| 20260505032634 | 74 | 55 | 1.7 | 7.8 | 0.00 | 0.00 | 0.00 | 81 | 1014.3 |
| 20260505032533 | 74 | 92 | 1.7 | 7.8 | 0.00 | 0.00 | 0.00 | 81 | 1014.3 |
| 20260505032431 | 73 | 14 | 2.6 | 7.8 | 0.00 | 0.00 | 0.00 | 81 | 1014.2 |
| 20260505032330 | 74 | 78 | 2.6 | 7.8 | 0.00 | 0.00 | 0.00 | 81 | 1014.2 |
| 20260505032233 | 73 | 111 | 1.7 | 6.1 | 0.00 | 0.00 | 0.00 | 81 | 1014.3 |
| 20260505032131 | 73 | 83 | 0.9 | 6.1 | 0.00 | 0.00 | 0.00 | 81 | 1014.2 |
| 20260505032033 | 73 | 127 | 1.7 | 6.1 | 0.00 | 0.00 | 0.00 | 81 | 1014.2 |
| 20260505031931 | 73 | 131 | 1.7 | 6.1 | 0.00 | 0.00 | 0.00 | 81 | 1014.3 |
| 20260505031832 | 73 | 109 | 2.6 | 6.1 | 0.00 | 0.00 | 0.00 | 81 | 1014.2 |
| 20260505031733 | 73 | 111 | 2.6 | 6.1 | 0.00 | 0.00 | 0.00 | 81 | 1014.2 |
| 20260505031630 | 73 | 120 | 2.6 | 6.1 | 0.00 | 0.00 | 0.00 | 81 | 1014.2 |
| 20260505031532 | 74 | 76 | 2.6 | 6.1 | 0.00 | 0.00 | 0.00 | 81 | 1014.2 |
| 20260505031431 | 73 | 330 | 2.6 | 6.1 | 0.00 | 0.00 | 0.00 | 81 | 1014.1 |
| 20260505031332 | 73 | 128 | 2.6 | 6.1 | 0.00 | 0.00 | 0.00 | 81 | 1014.3 |
| 20260505031233 | 73 | 85 | 1.7 | 6.1 | 0.00 | 0.00 | 0.00 | 81 | 1014.2 |
| 20260505031131 | 73 | 75 | 0.9 | 6.1 | 0.00 | 0.00 | 0.00 | 81 | 1014.2 |
| 20260505031031 | 73 | 61 | 1.7 | 6.1 | 0.00 | 0.00 | 0.00 | 81 | 1014.3 |
| 20260505030931 | 73 | 61 | 1.7 | 7.8 | 0.00 | 0.00 | 0.00 | 81 | 1014.3 |
| 20260505030831 | 73 | 25 | 0.9 | 7.8 | 0.00 | 0.00 | 0.00 | 81 | 1014.3 |
| 20260505030732 | 73 | 11 | 0.9 | 7.8 | 0.00 | 0.00 | 0.00 | 81 | 1014.3 |
| 20260505030631 | 73 | 10 | 0.9 | 7.8 | 0.00 | 0.00 | 0.00 | 81 | 1014.2 |
| 20260505030533 | 73 | 130 | 1.7 | 7.8 | 0.00 | 0.00 | 0.00 | 80 | 1014.1 |
| 20260505030432 | 73 | 130 | 1.7 | 7.8 | 0.00 | 0.00 | 0.00 | 80 | 1014.1 |
| 20260505030332 | 74 | 131 | 1.7 | 7.8 | 0.00 | 0.00 | 0.00 | 80 | 1014.1 |
| 20260505030231 | 73 | 89 | 1.7 | 7.8 | 0.00 | 0.00 | 0.00 | 80 | 1014.2 |
| 20260505030131 | 73 | 28 | 2.6 | 7.8 | 0.00 | 0.00 | 0.00 | 80 | 1014.2 |
| 20260505030032 | 73 | 148 | 1.7 | 7.8 | 0.00 | 0.00 | 0.00 | 81 | 1014.2 |
| 20260505025930 | 73 | 350 | 0.9 | 4.3 | 0.00 | 0.00 | 0.00 | 81 | 1014.3 |
| 20260505025832 | 73 | 0 | 1.7 | 4.3 | 0.00 | 0.00 | 0.00 | 81 | 1014.2 |
| 20260505025733 | 73 | 117 | 0.9 | 4.3 | 0.00 | 0.00 | 0.00 | 81 | 1014.2 |
| 20260505025621 | 73 | 121 | 0.9 | 4.3 | 0.00 | 0.00 | 0.00 | 81 | 1014.2 |
| 20260505025519 | 73 | 121 | 1.7 | 5.2 | 0.00 | 0.00 | 0.00 | 81 | 1014.2 |
| 20260505025418 | 73 | 140 | 1.7 | 5.2 | 0.00 | 0.00 | 0.00 | 81 | 1014.2 |
| 20260505025314 | 73 | 159 | 1.7 | 5.2 | 0.00 | 0.00 | 0.00 | 81 | 1014.2 |
| 20260505025213 | 73 | 172 | 0.9 | 5.2 | 0.00 | 0.00 | 0.00 | 81 | 1014.3 |
| 20260505025111 | 73 | 111 | 0.9 | 5.2 | 0.00 | 0.00 | 0.00 | 81 | 1014.4 |
| 20260505025011 | 73 | 130 | 1.7 | 5.2 | 0.00 | 0.00 | 0.00 | 81 | 1014.3 |
| 20260505024909 | 73 | 138 | 0.9 | 5.2 | 0.00 | 0.00 | 0.00 | 81 | 1014.4 |
| 20260505024810 | 73 | 137 | 0.9 | 5.2 | 0.00 | 0.00 | 0.00 | 81 | 1014.3 |
| 20260505024710 | 73 | 137 | 1.7 | 5.2 | 0.00 | 0.00 | 0.00 | 81 | 1014.4 |
| 20260505024609 | 73 | 137 | 1.7 | 5.2 | 0.00 | 0.00 | 0.00 | 81 | 1014.3 |
| 20260505024508 | 73 | 89 | 0.9 | 6.1 | 0.00 | 0.00 | 0.00 | 81 | 1014.3 |
| 20260505024408 | 73 | 86 | 1.7 | 6.1 | 0.00 | 0.00 | 0.00 | 81 | 1014.3 |
| 20260505024311 | 73 | 102 | 1.7 | 6.1 | 0.00 | 0.00 | 0.00 | 81 | 1014.3 |
| 20260505024209 | 73 | 89 | 0.9 | 6.1 | 0.00 | 0.00 | 0.00 | 81 | 1014.2 |
| 20260505024109 | 73 | 54 | 1.7 | 6.1 | 0.00 | 0.00 | 0.00 | 81 | 1014.3 |
| 20260505024008 | 73 | 158 | 0.9 | 6.1 | 0.00 | 0.00 | 0.00 | 81 | 1014.2 |
| 20260505023909 | 73 | 220 | 0.9 | 6.1 | 0.00 | 0.00 | 0.00 | 81 | 1014.3 |
| 20260505023809 | 73 | 106 | 1.7 | 6.1 | 0.00 | 0.00 | 0.00 | 81 | 1014.4 |
| 20260505023708 | 73 | 106 | 1.7 | 6.1 | 0.00 | 0.00 | 0.00 | 80 | 1014.4 |
| 20260505023609 | 73 | 106 | 1.7 | 6.1 | 0.00 | 0.00 | 0.00 | 80 | 1014.3 |
| 20260505023509 | 73 | 0 | 1.7 | 4.3 | 0.00 | 0.00 | 0.00 | 80 | 1014.3 |
| 20260505023408 | 73 | 23 | 1.7 | 4.3 | 0.00 | 0.00 | 0.00 | 80 | 1014.2 |
| 20260505023310 | 73 | 123 | 1.7 | 4.3 | 0.00 | 0.00 | 0.00 | 80 | 1014.2 |
| 20260505023208 | 73 | 113 | 1.7 | 4.3 | 0.00 | 0.00 | 0.00 | 80 | 1014.2 |
| 20260505023108 | 73 | 289 | 1.7 | 4.3 | 0.00 | 0.00 | 0.00 | 80 | 1014.2 |
| 20260505023008 | 73 | 117 | 1.7 | 4.3 | 0.00 | 0.00 | 0.00 | 80 | 1014.3 |
| 20260505022911 | 73 | 331 | 1.7 | 4.3 | 0.00 | 0.00 | 0.00 | 80 | 1014.2 |
| 20260505022809 | 73 | 324 | 2.6 | 4.3 | 0.00 | 0.00 | 0.00 | 80 | 1014.2 |
| 20260505022709 | 73 | 299 | 1.7 | 4.3 | 0.00 | 0.00 | 0.00 | 80 | 1014.1 |
| 20260505022610 | 74 | 149 | 0.9 | 3.5 | 0.00 | 0.00 | 0.00 | 80 | 1014.2 |
| 20260505022508 | 74 | 172 | 0.9 | 4.3 | 0.00 | 0.00 | 0.00 | 80 | 1014.2 |
| 20260505022409 | 74 | 172 | 1.7 | 4.3 | 0.00 | 0.00 | 0.00 | 80 | 1014.2 |
| 20260505022309 | 74 | 0 | 1.7 | 4.3 | 0.00 | 0.00 | 0.00 | 80 | 1014.1 |
| 20260505022210 | 74 | 0 | 1.7 | 4.3 | 0.00 | 0.00 | 0.00 | 80 | 1014.1 |
| 20260505022109 | 74 | 90 | 0.9 | 4.3 | 0.00 | 0.00 | 0.00 | 80 | 1014.1 |
| 20260505022008 | 74 | 90 | 1.7 | 4.3 | 0.00 | 0.00 | 0.00 | 80 | 1014.0 |
| 20260505021910 | 74 | 171 | 1.7 | 4.3 | 0.00 | 0.00 | 0.00 | 80 | 1014.1 |
| 20260505021808 | 74 | 313 | 1.7 | 4.3 | 0.00 | 0.00 | 0.00 | 80 | 1014.1 |
| 20260505021708 | 74 | 161 | 1.7 | 4.3 | 0.00 | 0.00 | 0.00 | 79 | 1014.1 |
| 20260505021608 | 74 | 162 | 2.6 | 4.3 | 0.00 | 0.00 | 0.00 | 79 | 1014.0 |
| 20260505021509 | 74 | 254 | 1.7 | 4.3 | 0.00 | 0.00 | 0.00 | 79 | 1014.1 |
| 20260505021409 | 74 | 82 | 1.7 | 5.2 | 0.00 | 0.00 | 0.00 | 79 | 1014.2 |
| 20260505021309 | 74 | 125 | 2.6 | 5.2 | 0.00 | 0.00 | 0.00 | 79 | 1014.2 |
| 20260505021209 | 74 | 97 | 1.7 | 5.2 | 0.00 | 0.00 | 0.00 | 79 | 1014.1 |
| 20260505021109 | 74 | 321 | 0.9 | 5.2 | 0.00 | 0.00 | 0.00 | 80 | 1014.2 |
| 20260505021010 | 74 | 288 | 1.7 | 6.1 | 0.00 | 0.00 | 0.00 | 79 | 1014.2 |
| 20260505020910 | 74 | 56 | 1.7 | 6.1 | 0.00 | 0.00 | 0.00 | 79 | 1014.2 |
| 20260505020809 | 74 | 147 | 1.7 | 8.7 | 0.00 | 0.00 | 0.00 | 79 | 1014.2 |
| 20260505020709 | 74 | 80 | 2.6 | 8.7 | 0.00 | 0.00 | 0.00 | 79 | 1014.1 |
| 20260505020608 | 74 | 131 | 2.6 | 8.7 | 0.00 | 0.00 | 0.00 | 79 | 1014.0 |
| 20260505020508 | 74 | 120 | 2.6 | 8.7 | 0.00 | 0.00 | 0.00 | 79 | 1014.0 |
| 20260505020408 | 74 | 327 | 1.7 | 8.7 | 0.00 | 0.00 | 0.00 | 79 | 1014.0 |
| 20260505020308 | 74 | 162 | 0.9 | 8.7 | 0.00 | 0.00 | 0.00 | 79 | 1014.1 |
| 20260505020207 | 74 | 314 | 1.7 | 8.7 | 0.00 | 0.00 | 0.00 | 79 | 1014.1 |
| 20260505020109 | 74 | 314 | 3.5 | 8.7 | 0.00 | 0.00 | 0.00 | 79 | 1014.1 |
| 20260505020009 | 74 | 204 | 3.5 | 8.7 | 0.00 | 0.00 | 0.00 | 79 | 1014.0 |
| 20260505015908 | 74 | 144 | 3.5 | 8.7 | 0.00 | 0.00 | 0.00 | 79 | 1014.0 |
| 20260505015808 | 74 | 179 | 1.7 | 7.8 | 0.00 | 0.00 | 0.00 | 79 | 1014.0 |
| 20260505015710 | 74 | 117 | 1.7 | 7.8 | 0.00 | 0.00 | 0.00 | 79 | 1014.1 |
| 20260505015608 | 74 | 0 | 2.6 | 7.8 | 0.00 | 0.00 | 0.00 | 79 | 1014.0 |
| 20260505015507 | 74 | 0 | 2.6 | 7.8 | 0.00 | 0.00 | 0.00 | 79 | 1014.1 |
| 20260505015409 | 74 | 319 | 1.7 | 6.1 | 0.00 | 0.00 | 0.00 | 79 | 1014.0 |
| 20260505015307 | 74 | 336 | 2.6 | 6.1 | 0.00 | 0.00 | 0.00 | 79 | 1014.0 |
| 20260505015208 | 74 | 175 | 2.6 | 6.1 | 0.00 | 0.00 | 0.00 | 79 | 1014.0 |
| 20260505015108 | 74 | 307 | 1.7 | 5.2 | 0.00 | 0.00 | 0.00 | 78 | 1014.0 |
| 20260505015010 | 74 | 133 | 1.7 | 5.2 | 0.00 | 0.00 | 0.00 | 78 | 1013.9 |
| 20260505014907 | 74 | 109 | 1.7 | 5.2 | 0.00 | 0.00 | 0.00 | 78 | 1014.0 |
| 20260505014810 | 74 | 155 | 1.7 | 5.2 | 0.00 | 0.00 | 0.00 | 78 | 1014.0 |
| 20260505014708 | 74 | 14 | 1.7 | 5.2 | 0.00 | 0.00 | 0.00 | 78 | 1014.0 |
| 20260505014607 | 74 | 124 | 2.6 | 5.2 | 0.00 | 0.00 | 0.00 | 78 | 1013.9 |
| 20260505014508 | 74 | 121 | 2.6 | 5.2 | 0.00 | 0.00 | 0.00 | 78 | 1014.0 |
| 20260505014408 | 74 | 123 | 2.6 | 5.2 | 0.00 | 0.00 | 0.00 | 78 | 1014.0 |
| 20260505014307 | 74 | 279 | 1.7 | 5.2 | 0.00 | 0.00 | 0.00 | 78 | 1013.9 |
| 20260505014209 | 74 | 116 | 1.7 | 5.2 | 0.00 | 0.00 | 0.00 | 78 | 1013.8 |
| 20260505014107 | 74 | 164 | 2.6 | 5.2 | 0.00 | 0.00 | 0.00 | 78 | 1013.8 |
| 20260505014008 | 74 | 128 | 1.7 | 5.2 | 0.00 | 0.00 | 0.00 | 78 | 1013.7 |
| 20260505013908 | 74 | 99 | 1.7 | 4.3 | 0.00 | 0.00 | 0.00 | 78 | 1013.8 |
| 20260505013808 | 74 | 99 | 1.7 | 4.3 | 0.00 | 0.00 | 0.00 | 78 | 1013.8 |
| 20260505013708 | 74 | 159 | 1.7 | 4.3 | 0.00 | 0.00 | 0.00 | 78 | 1013.7 |
| 20260505013607 | 74 | 103 | 1.7 | 4.3 | 0.00 | 0.00 | 0.00 | 78 | 1013.7 |
| 20260505013507 | 74 | 97 | 1.7 | 4.3 | 0.00 | 0.00 | 0.00 | 78 | 1013.7 |
| 20260505013408 | 74 | 92 | 1.7 | 3.5 | 0.00 | 0.00 | 0.00 | 78 | 1013.7 |
| 20260505013308 | 74 | 111 | 1.7 | 3.5 | 0.00 | 0.00 | 0.00 | 78 | 1013.7 |
| 20260505013209 | 74 | 185 | 1.7 | 4.3 | 0.00 | 0.00 | 0.00 | 78 | 1013.6 |
| 20260505013107 | 74 | 142 | 1.7 | 4.3 | 0.00 | 0.00 | 0.00 | 78 | 1013.6 |
| 20260505013009 | 74 | 135 | 1.7 | 4.3 | 0.00 | 0.00 | 0.00 | 78 | 1013.6 |
| 20260505012906 | 74 | 96 | 0.9 | 4.3 | 0.00 | 0.00 | 0.00 | 78 | 1013.6 |
| 20260505012804 | 74 | 110 | 0.9 | 5.2 | 0.00 | 0.00 | 0.00 | 78 | 1013.6 |
| 20260505012704 | 74 | 109 | 0.9 | 5.2 | 0.00 | 0.00 | 0.00 | 78 | 1013.6 |
| 20260505012603 | 74 | 109 | 0.9 | 5.2 | 0.00 | 0.00 | 0.00 | 78 | 1013.6 |
| 20260505012505 | 74 | 109 | 0.9 | 5.2 | 0.00 | 0.00 | 0.00 | 78 | 1013.7 |
| 20260505012403 | 74 | 128 | 1.7 | 5.2 | 0.00 | 0.00 | 0.00 | 78 | 1013.6 |
| 20260505012304 | 74 | 131 | 1.7 | 5.2 | 0.00 | 0.00 | 0.00 | 78 | 1013.7 |
| 20260505012203 | 74 | 140 | 1.7 | 5.2 | 0.00 | 0.00 | 0.00 | 78 | 1013.7 |
| 20260505012103 | 74 | 104 | 2.6 | 5.2 | 0.00 | 0.00 | 0.00 | 78 | 1013.7 |
| 20260505012004 | 74 | 227 | 2.6 | 5.2 | 0.00 | 0.00 | 0.00 | 78 | 1013.8 |
| 20260505011902 | 74 | 166 | 1.7 | 5.2 | 0.00 | 0.00 | 0.00 | 78 | 1013.7 |
| 20260505011802 | 74 | 149 | 1.7 | 3.5 | 0.00 | 0.00 | 0.00 | 78 | 1013.8 |
| 20260505011703 | 74 | 240 | 1.7 | 3.5 | 0.00 | 0.00 | 0.00 | 78 | 1013.8 |
| 20260505011603 | 74 | 38 | 0.9 | 3.5 | 0.00 | 0.00 | 0.00 | 78 | 1013.8 |
| 20260505011506 | 74 | 295 | 0.9 | 3.5 | 0.00 | 0.00 | 0.00 | 78 | 1013.9 |
| 20260505011403 | 74 | 295 | 0.9 | 3.5 | 0.00 | 0.00 | 0.00 | 78 | 1013.8 |
| 20260505011302 | 74 | 272 | 0.9 | 3.5 | 0.00 | 0.00 | 0.00 | 78 | 1013.7 |
| 20260505011201 | 74 | 142 | 0.9 | 3.5 | 0.00 | 0.00 | 0.00 | 78 | 1013.7 |
| 20260505011102 | 74 | 142 | 0.9 | 3.5 | 0.00 | 0.00 | 0.00 | 78 | 1013.7 |
| 20260505011004 | 74 | 151 | 1.7 | 3.5 | 0.00 | 0.00 | 0.00 | 78 | 1013.7 |
| 20260505010903 | 74 | 131 | 1.7 | 3.5 | 0.00 | 0.00 | 0.00 | 78 | 1013.7 |
| 20260505010803 | 75 | 31 | 0.9 | 2.6 | 0.00 | 0.00 | 0.00 | 78 | 1013.8 |
| 20260505010703 | 75 | 31 | 0.9 | 4.3 | 0.00 | 0.00 | 0.00 | 78 | 1013.7 |
| 20260505010603 | 75 | 31 | 0.9 | 4.3 | 0.00 | 0.00 | 0.00 | 78 | 1013.7 |
| 20260505010505 | 75 | 31 | 0.9 | 4.3 | 0.00 | 0.00 | 0.00 | 78 | 1013.7 |
| 20260505010402 | 75 | 31 | 1.7 | 4.3 | 0.00 | 0.00 | 0.00 | 78 | 1013.7 |
| 20260505010304 | 75 | 100 | 1.7 | 4.3 | 0.00 | 0.00 | 0.00 | 78 | 1013.7 |
| 20260505010203 | 75 | 13 | 0.9 | 4.3 | 0.00 | 0.00 | 0.00 | 78 | 1013.8 |
| 20260505010003 | 75 | 207 | 1.7 | 4.3 | 0.00 | 0.00 | 0.00 | 78 | 1013.7 |
| 20260505005902 | 75 | 224 | 1.7 | 4.3 | 0.00 | 0.00 | 0.00 | 78 | 1013.6 |
| 20260505005803 | 75 | 238 | 1.7 | 4.3 | 0.00 | 0.00 | 0.00 | 78 | 1013.7 |
| 20260505005703 | 75 | 180 | 1.7 | 4.3 | 0.00 | 0.00 | 0.00 | 77 | 1013.7 |
| 20260505005604 | 75 | 121 | 1.7 | 4.3 | 0.00 | 0.00 | 0.00 | 77 | 1013.6 |
| 20260505005502 | 75 | 161 | 1.7 | 4.3 | 0.00 | 0.00 | 0.00 | 77 | 1013.6 |
| 20260505005403 | 75 | 261 | 1.7 | 4.3 | 0.00 | 0.00 | 0.00 | 77 | 1013.6 |
| 20260505005235 | 75 | 128 | 1.7 | 4.3 | 0.00 | 0.00 | 0.00 | 77 | 1013.6 |
| 20260505005133 | 75 | 171 | 1.7 | 4.3 | 0.00 | 0.00 | 0.00 | 77 | 1013.5 |
| 20260505005031 | 75 | 125 | 2.6 | 4.3 | 0.00 | 0.00 | 0.00 | 77 | 1013.5 |
| 20260505004932 | 75 | 151 | 1.7 | 4.3 | 0.00 | 0.00 | 0.00 | 77 | 1013.6 |
| 20260505004831 | 75 | 193 | 1.7 | 4.3 | 0.00 | 0.00 | 0.00 | 77 | 1013.5 |
| 20260505004731 | 75 | 114 | 1.7 | 4.3 | 0.00 | 0.00 | 0.00 | 77 | 1013.5 |
| 20260505004632 | 75 | 116 | 1.7 | 4.3 | 0.00 | 0.00 | 0.00 | 77 | 1013.6 |
| 20260505004533 | 75 | 118 | 0.9 | 4.3 | 0.00 | 0.00 | 0.00 | 77 | 1013.6 |
| 20260505004432 | 75 | 117 | 1.7 | 4.3 | 0.00 | 0.00 | 0.00 | 76 | 1013.6 |
| 20260505004332 | 75 | 118 | 1.7 | 4.3 | 0.00 | 0.00 | 0.00 | 76 | 1013.5 |
| 20260505004230 | 75 | 45 | 1.7 | 2.6 | 0.00 | 0.00 | 0.00 | 77 | 1013.5 |
| 20260505004132 | 0 | 0.0 | 2.6 | 0.00 | 0.00 | 0.00 | 1013.5 | ||
| 20260505004032 | 0 | 0.0 | 2.6 | 0.00 | 0.00 | 0.00 | 1013.4 | ||
| 20260505003933 | 0 | 0.0 | 4.3 | 0.00 | 0.00 | 0.00 | 1013.5 | ||
| 20260505003834 | 76 | 86 | 1.7 | 4.3 | 0.00 | 0.00 | 0.00 | 76 | 1013.5 |
| 20260505003733 | 76 | 86 | 1.7 | 4.3 | 0.00 | 0.00 | 0.00 | 76 | 1013.4 |
| 20260505003632 | 76 | 86 | 1.7 | 6.1 | 0.00 | 0.00 | 0.00 | 76 | 1013.5 |
| 20260505003533 | 76 | 86 | 1.7 | 6.1 | 0.00 | 0.00 | 0.00 | 76 | 1013.6 |
| 20260505003433 | 76 | 86 | 1.7 | 6.1 | 0.00 | 0.00 | 0.00 | 76 | 1013.6 |
| 20260505003332 | 76 | 86 | 1.7 | 8.7 | 0.00 | 0.00 | 0.00 | 76 | 1013.6 |
| 20260505003232 | 76 | 0 | 0.9 | 8.7 | 0.00 | 0.00 | 0.00 | 75 | 1013.5 |
| 20260505003132 | 76 | 0 | 0.9 | 8.7 | 0.00 | 0.00 | 0.00 | 75 | 1013.5 |
| 20260505003032 | 76 | 0 | 0.9 | 8.7 | 0.00 | 0.00 | 0.00 | 75 | 1013.5 |
| 20260505002931 | 76 | 125 | 0.9 | 8.7 | 0.00 | 0.00 | 0.00 | 75 | 1013.5 |
| 20260505002830 | 76 | 133 | 1.7 | 8.7 | 0.00 | 0.00 | 0.00 | 75 | 1013.5 |
| 20260505002733 | 76 | 133 | 1.7 | 8.7 | 0.00 | 0.00 | 0.00 | 75 | 1013.4 |
| 20260505002633 | 76 | 264 | 1.7 | 8.7 | 0.00 | 0.00 | 0.00 | 75 | 1013.4 |
| 20260505002530 | 76 | 345 | 2.6 | 8.7 | 0.00 | 0.00 | 0.00 | 75 | 1013.4 |
| 20260505002432 | 76 | 178 | 1.7 | 8.7 | 0.00 | 0.00 | 0.00 | 75 | 1013.4 |
| 20260505002331 | 76 | 0 | 0.9 | 4.3 | 0.00 | 0.00 | 0.00 | 75 | 1013.5 |
| 20260505002232 | 76 | 121 | 1.7 | 4.3 | 0.00 | 0.00 | 0.00 | 75 | 1013.5 |
| 20260505002132 | 76 | 138 | 1.7 | 5.2 | 0.00 | 0.00 | 0.00 | 75 | 1013.5 |
| 20260505002031 | 76 | 326 | 1.7 | 5.2 | 0.00 | 0.00 | 0.00 | 75 | 1013.6 |
| 20260505001931 | 76 | 113 | 1.7 | 7.8 | 0.00 | 0.00 | 0.00 | 75 | 1013.5 |
| 20260505001832 | 76 | 145 | 1.7 | 7.8 | 0.00 | 0.00 | 0.00 | 75 | 1013.5 |
| 20260505001732 | 76 | 0 | 1.7 | 7.8 | 0.00 | 0.00 | 0.00 | 75 | 1013.5 |
| 20260505001631 | 76 | 298 | 1.7 | 7.8 | 0.00 | 0.00 | 0.00 | 75 | 1013.6 |
| 20260505001531 | 76 | 164 | 1.7 | 7.8 | 0.00 | 0.00 | 0.00 | 75 | 1013.5 |
| 20260505001432 | 76 | 47 | 0.9 | 7.8 | 0.00 | 0.00 | 0.00 | 75 | 1013.6 |
| 20260505001332 | 76 | 178 | 1.7 | 7.8 | 0.00 | 0.00 | 0.00 | 75 | 1013.6 |
| 20260505001229 | 76 | 149 | 2.6 | 7.8 | 0.00 | 0.00 | 0.00 | 75 | 1013.7 |
| 20260505001128 | 76 | 72 | 2.6 | 7.8 | 0.00 | 0.00 | 0.00 | 75 | 1013.7 |
| 20260505001025 | 76 | 202 | 3.5 | 7.8 | 0.00 | 0.00 | 0.00 | 75 | 1013.7 |
| 20260505000925 | 76 | 124 | 3.5 | 6.1 | 0.00 | 0.00 | 0.00 | 75 | 1013.7 |
| 20260505000823 | 76 | 134 | 1.7 | 3.5 | 0.00 | 0.00 | 0.00 | 75 | 1013.7 |
| 20260505000721 | 76 | 0 | 1.7 | 3.5 | 0.00 | 0.00 | 0.00 | 75 | 1013.8 |
| 20260505000620 | 76 | 0 | 1.7 | 5.2 | 0.00 | 0.00 | 0.00 | 75 | 1013.7 |
| 20260505000519 | 76 | 3 | 1.7 | 5.2 | 0.00 | 0.00 | 0.00 | 75 | 1013.7 |
| 20260505000417 | 76 | 309 | 1.7 | 5.2 | 0.00 | 0.00 | 0.00 | 75 | 1013.7 |
| 20260505000316 | 76 | 248 | 1.7 | 5.2 | 0.00 | 0.00 | 0.00 | 75 | 1013.6 |
| 20260505000214 | 76 | 334 | 1.7 | 5.2 | 0.00 | 0.00 | 0.00 | 75 | 1013.6 |
| 20260505000112 | 76 | 157 | 2.6 | 5.2 | 0.00 | 0.00 | 0.00 | 75 | 1013.7 |
| 20260505000012 | 76 | 192 | 1.7 | 6.1 | 0.00 | 0.00 | 0.00 | 75 | 1013.6 |
| 20260504235911 | 76 | 357 | 1.7 | 6.1 | 0.00 | 0.00 | 0.00 | 75 | 1013.6 |
| 20260504235810 | 76 | 118 | 2.6 | 6.1 | 0.00 | 0.00 | 0.00 | 75 | 1013.7 |
| 20260504235710 | 76 | 157 | 1.7 | 6.1 | 0.00 | 0.00 | 0.00 | 75 | 1013.7 |
| 20260504235608 | 76 | 113 | 1.7 | 6.1 | 0.00 | 0.00 | 0.00 | 75 | 1013.7 |
| 20260504235509 | 76 | 0 | 1.7 | 6.1 | 0.00 | 0.00 | 0.00 | 75 | 1013.7 |
| 20260504235406 | 76 | 133 | 1.7 | 6.1 | 0.00 | 0.00 | 0.00 | 75 | 1013.6 |
| 20260504235304 | 76 | 140 | 1.7 | 6.1 | 0.00 | 0.00 | 0.00 | 74 | 1013.7 |
| 20260504235204 | 76 | 30 | 2.6 | 6.1 | 0.00 | 0.00 | 0.00 | 74 | 1013.7 |
| 20260504235102 | 76 | 106 | 1.7 | 6.1 | 0.00 | 0.00 | 0.00 | 74 | 1013.7 |
| 20260504235004 | 76 | 131 | 1.7 | 5.2 | 0.00 | 0.00 | 0.00 | 75 | 1013.8 |
| 20260504234904 | 76 | 85 | 1.7 | 5.2 | 0.00 | 0.00 | 0.00 | 75 | 1013.7 |
| 20260504234804 | 76 | 85 | 1.7 | 5.2 | 0.00 | 0.00 | 0.00 | 74 | 1013.7 |
| 20260504234703 | 77 | 82 | 2.6 | 5.2 | 0.00 | 0.00 | 0.00 | 74 | 1013.8 |
| 20260504234604 | 77 | 258 | 2.6 | 5.2 | 0.00 | 0.00 | 0.00 | 75 | 1013.7 |
| 20260504234504 | 76 | 140 | 0.9 | 5.2 | 0.00 | 0.00 | 0.00 | 75 | 1013.7 |
| 20260504234404 | 76 | 140 | 0.9 | 5.2 | 0.00 | 0.00 | 0.00 | 75 | 1013.7 |
| 20260504234303 | 77 | 7 | 1.7 | 5.2 | 0.00 | 0.00 | 0.00 | 75 | 1013.9 |
| 20260504234204 | 77 | 7 | 1.7 | 5.2 | 0.00 | 0.00 | 0.00 | 75 | 1013.8 |
| 20260504234103 | 77 | 7 | 1.7 | 5.2 | 0.00 | 0.00 | 0.00 | 75 | 1013.9 |
| 20260504234004 | 77 | 7 | 1.7 | 5.2 | 0.00 | 0.00 | 0.00 | 75 | 1013.8 |
| 20260504233902 | 76 | 0 | 1.7 | 5.2 | 0.00 | 0.00 | 0.00 | 75 | 1013.8 |
| 20260504233803 | 77 | 164 | 1.7 | 5.2 | 0.00 | 0.00 | 0.00 | 74 | 1013.8 |
| 20260504233704 | 77 | 289 | 0.9 | 5.2 | 0.00 | 0.00 | 0.00 | 74 | 1013.9 |
| 20260504233602 | 77 | 7 | 0.9 | 4.3 | 0.00 | 0.00 | 0.00 | 74 | 1013.9 |
| 20260504233503 | 77 | 87 | 1.7 | 8.7 | 0.00 | 0.00 | 0.00 | 74 | 1013.9 |
| 20260504233404 | 77 | 89 | 1.7 | 8.7 | 0.00 | 0.00 | 0.00 | 74 | 1013.9 |
| 20260504233302 | 77 | 90 | 1.7 | 8.7 | 0.00 | 0.00 | 0.00 | 74 | 1013.9 |
| 20260504233203 | 0 | 128 | 3.5 | 8.7 | 0.00 | 0.00 | 0.00 | 1013.9 | |
| 20260504233104 | 77 | 128 | 3.5 | 8.7 | 0.00 | 0.00 | 0.00 | 74 | 1013.9 |
| 20260504232932 | 77 | 128 | 3.5 | 8.7 | 0.00 | 0.00 | 0.00 | 74 | 1013.8 |
| 20260504232833 | 77 | 128 | 3.5 | 8.7 | 0.00 | 0.00 | 0.00 | 74 | 1013.8 |
| 20260504232732 | 77 | 128 | 3.5 | 8.7 | 0.00 | 0.00 | 0.00 | 74 | 1013.8 |
| 20260504232623 | 77 | 138 | 3.5 | 8.7 | 0.00 | 0.00 | 0.00 | 74 | 1013.9 |
| 20260504232522 | 77 | 100 | 1.7 | 5.2 | 0.00 | 0.00 | 0.00 | 74 | 1013.9 |
| 20260504232420 | 77 | 97 | 1.7 | 5.2 | 0.00 | 0.00 | 0.00 | 74 | 1013.9 |
| 20260504232321 | 77 | 59 | 1.7 | 5.2 | 0.00 | 0.00 | 0.00 | 74 | 1013.9 |
| 20260504232218 | 77 | 52 | 2.6 | 5.2 | 0.00 | 0.00 | 0.00 | 74 | 1014.0 |
| 20260504232110 | 77 | 25 | 2.6 | 5.2 | 0.00 | 0.00 | 0.00 | 73 | 1014.0 |
| 20260504232007 | 77 | 123 | 2.6 | 5.2 | 0.00 | 0.00 | 0.00 | 74 | 1014.1 |
| 20260504231906 | 77 | 127 | 2.6 | 5.2 | 0.00 | 0.00 | 0.00 | 73 | 1014.0 |
| 20260504231804 | 77 | 137 | 2.6 | 5.2 | 0.00 | 0.00 | 0.00 | 74 | 1014.1 |
| 20260504231703 | 77 | 65 | 2.6 | 5.2 | 0.00 | 0.00 | 0.00 | 74 | 1014.0 |
| 20260504231604 | 77 | 147 | 1.7 | 4.3 | 0.00 | 0.00 | 0.00 | 74 | 1013.9 |
| 20260504231502 | 77 | 109 | 1.7 | 4.3 | 0.00 | 0.00 | 0.00 | 74 | 1013.9 |
| 20260504231402 | 77 | 45 | 1.7 | 4.3 | 0.00 | 0.00 | 0.00 | 73 | 1013.9 |
| 20260504231304 | 77 | 124 | 1.7 | 4.3 | 0.00 | 0.00 | 0.00 | 73 | 1013.9 |
| 20260504231202 | 77 | 171 | 1.7 | 4.3 | 0.00 | 0.00 | 0.00 | 74 | 1013.9 |
| 20260504231102 | 77 | 68 | 1.7 | 4.3 | 0.00 | 0.00 | 0.00 | 74 | 1014.0 |
| 20260504231004 | 77 | 68 | 1.7 | 4.3 | 0.00 | 0.00 | 0.00 | 73 | 1014.0 |
| 20260504230903 | 77 | 0 | 1.7 | 5.2 | 0.00 | 0.00 | 0.00 | 74 | 1014.0 |
| 20260504230803 | 0 | 0.0 | 5.2 | 0.00 | 0.00 | 0.00 | 1014.0 | ||
| 20260504230704 | 0 | 0.0 | 5.2 | 0.00 | 0.00 | 0.00 | 1014.0 | ||
| 20260504230601 | 0 | 0.0 | 5.2 | 0.00 | 0.00 | 0.00 | 1014.0 | ||
| 20260504230502 | 78 | 27 | 3.5 | 5.2 | 0.00 | 0.00 | 0.00 | 73 | 1014.0 |
| 20260504230401 | 78 | 27 | 3.5 | 5.2 | 0.00 | 0.00 | 0.00 | 73 | 1014.0 |
| 20260504230301 | 78 | 27 | 3.5 | 5.2 | 0.00 | 0.00 | 0.00 | 73 | 1014.0 |
| 20260504230202 | 78 | 27 | 3.5 | 5.2 | 0.00 | 0.00 | 0.00 | 73 | 1014.0 |
| 20260504230101 | 78 | 27 | 3.5 | 5.2 | 0.00 | 0.00 | 0.00 | 73 | 1014.0 |
| 20260504230001 | 78 | 11 | 4.3 | 5.2 | 0.00 | 0.00 | 0.00 | 73 | 1014.0 |
| 20260504225901 | 78 | 20 | 1.7 | 4.3 | 0.00 | 0.00 | 0.00 | 73 | 1014.0 |
| 20260504225801 | 78 | 20 | 1.7 | 4.3 | 0.00 | 0.00 | 0.00 | 73 | 1014.0 |
| 20260504225701 | 78 | 20 | 1.7 | 4.3 | 0.00 | 0.00 | 0.00 | 73 | 1014.0 |
| 20260504225600 | 78 | 99 | 1.7 | 4.3 | 0.00 | 0.00 | 0.00 | 73 | 1014.0 |
| 20260504225501 | 78 | 124 | 1.7 | 4.3 | 0.00 | 0.00 | 0.00 | 73 | 1014.1 |
| 20260504225400 | 78 | 125 | 1.7 | 4.3 | 0.00 | 0.00 | 0.00 | 72 | 1014.0 |
| 20260504225300 | 78 | 121 | 0.9 | 5.2 | 0.00 | 0.00 | 0.00 | 72 | 1014.1 |
| 20260504225201 | 78 | 121 | 0.9 | 5.2 | 0.00 | 0.00 | 0.00 | 72 | 1014.1 |
| 20260504225101 | 78 | 123 | 1.7 | 5.2 | 0.00 | 0.00 | 0.00 | 72 | 1014.2 |
| 20260504225000 | 78 | 110 | 1.7 | 5.2 | 0.00 | 0.00 | 0.00 | 72 | 1014.2 |
| 20260504224859 | 78 | 161 | 2.6 | 5.2 | 0.00 | 0.00 | 0.00 | 73 | 1014.2 |
| 20260504224801 | 78 | 124 | 1.7 | 5.2 | 0.00 | 0.00 | 0.00 | 73 | 1014.2 |
| 20260504224659 | 78 | 107 | 1.7 | 5.2 | 0.00 | 0.00 | 0.00 | 73 | 1014.3 |
| 20260504224558 | 78 | 180 | 1.7 | 5.2 | 0.00 | 0.00 | 0.00 | 73 | 1014.3 |
| 20260504224457 | 78 | 75 | 1.7 | 5.2 | 0.00 | 0.00 | 0.00 | 72 | 1014.2 |
| 20260504224356 | 78 | 75 | 2.6 | 5.2 | 0.00 | 0.00 | 0.00 | 72 | 1014.2 |
| 20260504224253 | 78 | 138 | 2.6 | 4.3 | 0.00 | 0.00 | 0.00 | 72 | 1014.3 |
| 20260504224151 | 78 | 20 | 1.7 | 6.1 | 0.00 | 0.00 | 0.00 | 72 | 1014.2 |
| 20260504224049 | 78 | 35 | 1.7 | 6.1 | 0.00 | 0.00 | 0.00 | 72 | 1014.3 |
| 20260504223948 | 78 | 34 | 1.7 | 6.1 | 0.00 | 0.00 | 0.00 | 72 | 1014.3 |
| 20260504223847 | 78 | 165 | 1.7 | 10.4 | 0.00 | 0.00 | 0.00 | 72 | 1014.2 |
| 20260504223740 | 78 | 144 | 2.6 | 10.4 | 0.00 | 0.00 | 0.00 | 72 | 1014.2 |
| 20260504223634 | 78 | 168 | 1.7 | 10.4 | 0.00 | 0.00 | 0.00 | 72 | 1014.3 |
| 20260504223532 | 78 | 296 | 2.6 | 10.4 | 0.00 | 0.00 | 0.00 | 72 | 1014.3 |
| 20260504223431 | 78 | 30 | 3.5 | 10.4 | 0.00 | 0.00 | 0.00 | 72 | 1014.3 |
| 20260504223331 | 78 | 118 | 2.6 | 10.4 | 0.00 | 0.00 | 0.00 | 72 | 1014.3 |
| 20260504223232 | 78 | 197 | 1.7 | 10.4 | 0.00 | 0.00 | 0.00 | 72 | 1014.4 |
| 20260504223134 | 78 | 252 | 1.7 | 10.4 | 0.00 | 0.00 | 0.00 | 71 | 1014.3 |
| 20260504223033 | 78 | 90 | 2.6 | 10.4 | 0.00 | 0.00 | 0.00 | 72 | 1014.4 |
| 20260504222931 | 78 | 166 | 3.5 | 10.4 | 0.00 | 0.00 | 0.00 | 70 | 1014.4 |
| 20260504222833 | 78 | 151 | 1.7 | 5.2 | 0.00 | 0.00 | 0.00 | 71 | 1014.5 |
| 20260504222732 | 79 | 258 | 1.7 | 4.3 | 0.00 | 0.00 | 0.00 | 71 | 1014.4 |
| 20260504222632 | 79 | 347 | 1.7 | 4.3 | 0.00 | 0.00 | 0.00 | 72 | 1014.4 |
| 20260504222532 | 79 | 176 | 1.7 | 4.3 | 0.00 | 0.00 | 0.00 | 72 | 1014.4 |
| 20260504222431 | 79 | 171 | 2.6 | 5.2 | 0.00 | 0.00 | 0.00 | 72 | 1014.4 |
| 20260504222331 | 79 | 147 | 1.7 | 5.2 | 0.00 | 0.00 | 0.00 | 71 | 1014.5 |
| 20260504222231 | 79 | 20 | 0.9 | 5.2 | 0.00 | 0.00 | 0.00 | 71 | 1014.5 |
| 20260504222132 | 79 | 137 | 0.9 | 5.2 | 0.00 | 0.00 | 0.00 | 71 | 1014.6 |
| 20260504222032 | 79 | 83 | 0.9 | 5.2 | 0.00 | 0.00 | 0.00 | 71 | 1014.6 |
| 20260504221934 | 79 | 86 | 1.7 | 5.2 | 0.00 | 0.00 | 0.00 | 71 | 1014.6 |
| 20260504221832 | 78 | 130 | 1.7 | 5.2 | 0.00 | 0.00 | 0.00 | 71 | 1014.5 |
| 20260504221733 | 78 | 54 | 1.7 | 5.2 | 0.00 | 0.00 | 0.00 | 70 | 1014.6 |
| 20260504221633 | 78 | 131 | 2.6 | 5.2 | 0.00 | 0.00 | 0.00 | 70 | 1014.6 |
| 20260504221530 | 78 | 206 | 2.6 | 5.2 | 0.00 | 0.00 | 0.00 | 70 | 1014.6 |
| 20260504221433 | 78 | 134 | 2.6 | 6.1 | 0.00 | 0.00 | 0.00 | 71 | 1014.5 |
| 20260504221332 | 79 | 178 | 1.7 | 6.1 | 0.00 | 0.00 | 0.00 | 71 | 1014.6 |
| 20260504221232 | 79 | 89 | 1.7 | 6.1 | 0.00 | 0.00 | 0.00 | 71 | 1014.6 |
| 20260504221133 | 79 | 89 | 2.6 | 6.1 | 0.00 | 0.00 | 0.00 | 70 | 1014.6 |
| 20260504221032 | 79 | 144 | 2.6 | 6.1 | 0.00 | 0.00 | 0.00 | 70 | 1014.6 |
| 20260504220932 | 79 | 155 | 2.6 | 6.1 | 0.00 | 0.00 | 0.00 | 70 | 1014.5 |
| 20260504220832 | 79 | 99 | 1.7 | 6.1 | 0.00 | 0.00 | 0.00 | 70 | 1014.6 |
| 20260504220732 | 79 | 47 | 1.7 | 6.1 | 0.00 | 0.00 | 0.00 | 70 | 1014.5 |
| 20260504220629 | 79 | 327 | 2.6 | 6.1 | 0.00 | 0.00 | 0.00 | 71 | 1014.6 |
| 20260504220529 | 79 | 173 | 1.7 | 6.1 | 0.00 | 0.00 | 0.00 | 69 | 1014.6 |
| 20260504220427 | 79 | 138 | 0.9 | 3.5 | 0.00 | 0.00 | 0.00 | 70 | 1014.6 |
| 20260504220326 | 79 | 145 | 0.9 | 3.5 | 0.00 | 0.00 | 0.00 | 69 | 1014.6 |
| 20260504220226 | 79 | 145 | 1.7 | 4.3 | 0.00 | 0.00 | 0.00 | 69 | 1014.6 |
| 20260504220122 | 79 | 245 | 1.7 | 4.3 | 0.00 | 0.00 | 0.00 | 69 | 1014.6 |
| 20260504220011 | 79 | 138 | 1.7 | 4.3 | 0.00 | 0.00 | 0.00 | 69 | 1014.5 |
| 20260504215909 | 79 | 138 | 1.7 | 4.3 | 0.00 | 0.00 | 0.00 | 70 | 1014.5 |
| 20260504215806 | 79 | 123 | 1.7 | 4.3 | 0.00 | 0.00 | 0.00 | 70 | 1014.5 |
| 20260504215708 | 79 | 124 | 1.7 | 4.3 | 0.00 | 0.00 | 0.00 | 70 | 1014.6 |
| 20260504215603 | 79 | 124 | 1.7 | 4.3 | 0.00 | 0.00 | 0.00 | 70 | 1014.6 |
| 20260504215505 | 79 | 166 | 2.6 | 4.3 | 0.00 | 0.00 | 0.00 | 70 | 1014.6 |
| 20260504215404 | 79 | 196 | 1.7 | 4.3 | 0.00 | 0.00 | 0.00 | 70 | 1014.6 |
| 20260504215304 | 79 | 137 | 1.7 | 5.2 | 0.00 | 0.00 | 0.00 | 70 | 1014.6 |
| 20260504215203 | 79 | 192 | 1.7 | 5.2 | 0.00 | 0.00 | 0.00 | 69 | 1014.6 |
| 20260504215103 | 79 | 103 | 0.9 | 5.2 | 0.00 | 0.00 | 0.00 | 69 | 1014.6 |
| 20260504215004 | 79 | 164 | 1.7 | 5.2 | 0.00 | 0.00 | 0.00 | 69 | 1014.6 |
| 20260504214903 | 79 | 120 | 1.7 | 5.2 | 0.00 | 0.00 | 0.00 | 68 | 1014.7 |
| 20260504214802 | 79 | 27 | 1.7 | 5.2 | 0.00 | 0.00 | 0.00 | 67 | 1014.7 |
| 20260504214703 | 80 | 118 | 1.7 | 5.2 | 0.00 | 0.00 | 0.00 | 68 | 1014.6 |
| 20260504214601 | 80 | 162 | 1.7 | 5.2 | 0.00 | 0.00 | 0.00 | 68 | 1014.6 |
| 20260504214503 | 80 | 135 | 1.7 | 5.2 | 0.00 | 0.00 | 0.00 | 67 | 1014.6 |
| 20260504214404 | 80 | 135 | 1.7 | 5.2 | 0.00 | 0.00 | 0.00 | 66 | 1014.6 |
| 20260504214302 | 80 | 124 | 1.7 | 5.2 | 0.00 | 0.00 | 0.00 | 65 | 1014.6 |
| 20260504214203 | 80 | 152 | 1.7 | 5.2 | 0.00 | 0.00 | 0.00 | 67 | 1014.6 |
| 20260504214104 | 80 | 182 | 1.7 | 4.3 | 0.00 | 0.00 | 0.00 | 66 | 1014.5 |
| 20260504214003 | 80 | 85 | 0.9 | 4.3 | 0.00 | 0.00 | 0.00 | 67 | 1014.7 |
| 20260504213902 | 80 | 135 | 1.7 | 4.3 | 0.00 | 0.00 | 0.00 | 67 | 1014.6 |
| 20260504213801 | 80 | 128 | 1.7 | 4.3 | 0.00 | 0.00 | 0.00 | 66 | 1014.7 |
| 20260504213703 | 80 | 128 | 1.7 | 4.3 | 0.00 | 0.00 | 0.00 | 66 | 1014.6 |
| 20260504213602 | 80 | 120 | 0.9 | 4.3 | 0.00 | 0.00 | 0.00 | 70 | 1014.7 |
| 20260504213503 | 80 | 121 | 0.9 | 4.3 | 0.00 | 0.00 | 0.00 | 68 | 1014.8 |
| 20260504213402 | 80 | 83 | 0.9 | 4.3 | 0.00 | 0.00 | 0.00 | 67 | 1014.9 |
| 20260504213303 | 80 | 83 | 0.9 | 4.3 | 0.00 | 0.00 | 0.00 | 67 | 1014.9 |
| 20260504213203 | 80 | 83 | 1.7 | 4.3 | 0.00 | 0.00 | 0.00 | 66 | 1014.8 |
| 20260504213101 | 80 | 109 | 1.7 | 4.3 | 0.00 | 0.00 | 0.00 | 66 | 1014.8 |
| 20260504213002 | 80 | 100 | 1.7 | 4.3 | 0.00 | 0.00 | 0.00 | 65 | 1014.7 |
| 20260504212902 | 80 | 100 | 1.7 | 4.3 | 0.00 | 0.00 | 0.00 | 65 | 1014.8 |
| 20260504212802 | 80 | 48 | 1.7 | 4.3 | 0.00 | 0.00 | 0.00 | 65 | 1014.8 |
| 20260504212704 | 80 | 199 | 0.9 | 3.5 | 0.00 | 0.00 | 0.00 | 65 | 1014.8 |
| 20260504212602 | 80 | 125 | 1.7 | 3.5 | 0.00 | 0.00 | 0.00 | 67 | 1014.9 |
| 20260504212503 | 80 | 148 | 1.7 | 3.5 | 0.00 | 0.00 | 0.00 | 65 | 1014.8 |
| 20260504212403 | 80 | 104 | 1.7 | 3.5 | 0.00 | 0.00 | 0.00 | 66 | 1014.8 |
| 20260504212303 | 80 | 137 | 1.7 | 3.5 | 0.00 | 0.00 | 0.00 | 66 | 1014.8 |
| 20260504212202 | 80 | 68 | 1.7 | 3.5 | 0.00 | 0.00 | 0.00 | 65 | 1014.8 |
| 20260504212104 | 81 | 21 | 1.7 | 3.5 | 0.00 | 0.00 | 0.00 | 63 | 1014.9 |
| 20260504212003 | 81 | 31 | 1.7 | 5.2 | 0.00 | 0.00 | 0.00 | 65 | 1014.9 |
| 20260504211901 | 81 | 142 | 1.7 | 5.2 | 0.00 | 0.00 | 0.00 | 65 | 1015.0 |
| 20260504211800 | 81 | 73 | 1.7 | 5.2 | 0.00 | 0.00 | 0.00 | 63 | 1015.0 |
| 20260504211658 | 81 | 155 | 1.7 | 5.2 | 0.00 | 0.00 | 0.00 | 66 | 1015.0 |
| 20260504211557 | 81 | 159 | 1.7 | 9.6 | 0.00 | 0.00 | 0.00 | 65 | 1015.0 |
| 20260504211457 | 81 | 154 | 1.7 | 9.6 | 0.00 | 0.00 | 0.00 | 65 | 1015.1 |
| 20260504211359 | 81 | 251 | 0.9 | 9.6 | 0.00 | 0.00 | 0.00 | 65 | 1015.1 |
| 20260504211257 | 81 | 221 | 0.9 | 9.6 | 0.00 | 0.00 | 0.00 | 65 | 1015.1 |
| 20260504211158 | 81 | 223 | 1.7 | 9.6 | 0.00 | 0.00 | 0.00 | 64 | 1015.1 |
| 20260504211059 | 81 | 171 | 1.7 | 9.6 | 0.00 | 0.00 | 0.00 | 64 | 1015.1 |
| 20260504210957 | 82 | 78 | 1.7 | 9.6 | 0.00 | 0.00 | 0.00 | 63 | 1015.1 |
| 20260504210858 | 82 | 268 | 1.7 | 9.6 | 0.00 | 0.00 | 0.00 | 64 | 1015.1 |
| 20260504210758 | 82 | 252 | 2.6 | 9.6 | 0.00 | 0.00 | 0.00 | 65 | 1015.0 |
| 20260504210658 | 81 | 164 | 2.6 | 9.6 | 0.00 | 0.00 | 0.00 | 64 | 1015.1 |
| 20260504210558 | 81 | 58 | 1.7 | 3.5 | 0.00 | 0.00 | 0.00 | 65 | 1014.9 |
| 20260504210459 | 81 | 56 | 0.9 | 3.5 | 0.00 | 0.00 | 0.00 | 65 | 1015.0 |
| 20260504210400 | 80 | 27 | 0.9 | 3.5 | 0.00 | 0.00 | 0.00 | 66 | 1015.0 |
| 20260504210257 | 80 | 27 | 1.7 | 4.3 | 0.00 | 0.00 | 0.00 | 65 | 1015.0 |
| 20260504210159 | 80 | 131 | 0.9 | 4.3 | 0.00 | 0.00 | 0.00 | 66 | 1015.0 |
| 20260504210058 | 80 | 131 | 0.9 | 4.3 | 0.00 | 0.00 | 0.00 | 66 | 1015.1 |
| 20260504205959 | 80 | 131 | 0.9 | 4.3 | 0.00 | 0.00 | 0.00 | 66 | 1015.1 |
| 20260504205859 | 80 | 120 | 0.9 | 4.3 | 0.00 | 0.00 | 0.00 | 66 | 1015.1 |
| 20260504205758 | 80 | 120 | 0.9 | 4.3 | 0.00 | 0.00 | 0.00 | 66 | 1015.3 |
| 20260504205658 | 80 | 120 | 1.7 | 4.3 | 0.00 | 0.00 | 0.00 | 64 | 1015.2 |
| 20260504205557 | 80 | 121 | 1.7 | 6.1 | 0.00 | 0.00 | 0.00 | 63 | 1015.3 |
| 20260504205458 | 81 | 124 | 1.7 | 7.8 | 0.00 | 0.00 | 0.00 | 63 | 1015.4 |
| 20260504205359 | 81 | 125 | 1.7 | 7.8 | 0.00 | 0.00 | 0.00 | 63 | 1015.4 |
| 20260504205259 | 81 | 114 | 1.7 | 7.8 | 0.00 | 0.00 | 0.00 | 63 | 1015.4 |
| 20260504205158 | 81 | 123 | 0.9 | 7.8 | 0.00 | 0.00 | 0.00 | 65 | 1015.4 |
| 20260504205057 | 81 | 123 | 0.9 | 7.8 | 0.00 | 0.00 | 0.00 | 64 | 1015.3 |
| 20260504204958 | 81 | 134 | 0.9 | 7.8 | 0.00 | 0.00 | 0.00 | 63 | 1015.4 |
| 20260504204858 | 81 | 134 | 1.7 | 7.8 | 0.00 | 0.00 | 0.00 | 64 | 1015.4 |
| 20260504204758 | 81 | 127 | 2.6 | 7.8 | 0.00 | 0.00 | 0.00 | 66 | 1015.3 |
| 20260504204658 | 81 | 127 | 3.5 | 7.8 | 0.00 | 0.00 | 0.00 | 63 | 1015.3 |
| 20260504204557 | 82 | 157 | 2.6 | 7.8 | 0.00 | 0.00 | 0.00 | 63 | 1015.3 |
| 20260504204457 | 82 | 261 | 2.6 | 6.1 | 0.00 | 0.00 | 0.00 | 64 | 1015.3 |
| 20260504204356 | 81 | 272 | 1.7 | 6.1 | 0.00 | 0.00 | 0.00 | 64 | 1015.4 |
| 20260504204259 | 81 | 172 | 1.7 | 5.2 | 0.00 | 0.00 | 0.00 | 64 | 1015.4 |
| 20260504204157 | 81 | 172 | 1.7 | 5.2 | 0.00 | 0.00 | 0.00 | 65 | 1015.4 |
| 20260504204056 | 81 | 314 | 0.9 | 5.2 | 0.00 | 0.00 | 0.00 | 64 | 1015.4 |
| 20260504203958 | 81 | 314 | 0.9 | 5.2 | 0.00 | 0.00 | 0.00 | 63 | 1015.3 |
| 20260504203856 | 81 | 314 | 0.9 | 5.2 | 0.00 | 0.00 | 0.00 | 63 | 1015.3 |
| 20260504203757 | 81 | 307 | 1.7 | 5.2 | 0.00 | 0.00 | 0.00 | 64 | 1015.4 |
| 20260504203657 | 81 | 306 | 2.6 | 5.2 | 0.00 | 0.00 | 0.00 | 63 | 1015.3 |
| 20260504203558 | 81 | 331 | 1.7 | 5.2 | 0.00 | 0.00 | 0.00 | 63 | 1015.3 |
| 20260504203457 | 81 | 85 | 1.7 | 4.3 | 0.00 | 0.00 | 0.00 | 65 | 1015.4 |
| 20260504203357 | 81 | 86 | 1.7 | 4.3 | 0.00 | 0.00 | 0.00 | 64 | 1015.5 |
| 20260504203256 | 81 | 278 | 1.7 | 4.3 | 0.00 | 0.00 | 0.00 | 65 | 1015.4 |
| 20260504203156 | 81 | 0 | 1.7 | 3.5 | 0.00 | 0.00 | 0.00 | 64 | 1015.6 |
| 20260504203056 | 81 | 100 | 1.7 | 3.5 | 0.00 | 0.00 | 0.00 | 65 | 1015.6 |
| 20260504202956 | 81 | 100 | 1.7 | 3.5 | 0.00 | 0.00 | 0.00 | 64 | 1015.5 |
| 20260504202857 | 81 | 86 | 0.9 | 3.5 | 0.00 | 0.00 | 0.00 | 66 | 1015.6 |
| 20260504202758 | 81 | 110 | 0.9 | 3.5 | 0.00 | 0.00 | 0.00 | 64 | 1015.6 |
| 20260504202656 | 81 | 110 | 0.9 | 3.5 | 0.00 | 0.00 | 0.00 | 62 | 1015.6 |
| 20260504202557 | 81 | 104 | 0.9 | 3.5 | 0.00 | 0.00 | 0.00 | 64 | 1015.6 |
| 20260504202456 | 81 | 179 | 0.9 | 3.5 | 0.00 | 0.00 | 0.00 | 62 | 1015.6 |
| 20260504202357 | 81 | 262 | 0.9 | 3.5 | 0.00 | 0.00 | 0.00 | 62 | 1015.6 |
| 20260504202256 | 81 | 262 | 1.7 | 4.3 | 0.00 | 0.00 | 0.00 | 65 | 1015.5 |
| 20260504202158 | 81 | 154 | 1.7 | 4.3 | 0.00 | 0.00 | 0.00 | 65 | 1015.6 |
| 20260504202056 | 81 | 154 | 1.7 | 4.3 | 0.00 | 0.00 | 0.00 | 64 | 1015.6 |
| 20260504201957 | 81 | 121 | 1.7 | 4.3 | 0.00 | 0.00 | 0.00 | 62 | 1015.6 |
| 20260504201859 | 81 | 161 | 1.7 | 4.3 | 0.00 | 0.00 | 0.00 | 63 | 1015.7 |
| 20260504201758 | 81 | 127 | 1.7 | 4.3 | 0.00 | 0.00 | 0.00 | 63 | 1015.7 |
| 20260504201657 | 81 | 109 | 1.7 | 4.3 | 0.00 | 0.00 | 0.00 | 62 | 1015.7 |
| 20260504201557 | 81 | 186 | 1.7 | 4.3 | 0.00 | 0.00 | 0.00 | 62 | 1015.7 |
| 20260504201456 | 81 | 118 | 1.7 | 4.3 | 0.00 | 0.00 | 0.00 | 63 | 1015.8 |
| 20260504201356 | 81 | 85 | 1.7 | 4.3 | 0.00 | 0.00 | 0.00 | 62 | 1015.8 |
| 20260504201256 | 81 | 113 | 1.7 | 5.2 | 0.00 | 0.00 | 0.00 | 65 | 1015.8 |
| 20260504201157 | 81 | 133 | 2.6 | 5.2 | 0.00 | 0.00 | 0.00 | 62 | 1015.8 |
| 20260504201056 | 81 | 148 | 1.7 | 5.2 | 0.00 | 0.00 | 0.00 | 65 | 1015.9 |
| 20260504200957 | 81 | 109 | 0.9 | 5.2 | 0.00 | 0.00 | 0.00 | 61 | 1015.8 |
| 20260504200857 | 81 | 111 | 0.9 | 5.2 | 0.00 | 0.00 | 0.00 | 61 | 1015.9 |
| 20260504200757 | 81 | 111 | 0.9 | 7.8 | 0.00 | 0.00 | 0.00 | 61 | 1015.9 |
| 20260504200657 | 81 | 113 | 0.9 | 7.8 | 0.00 | 0.00 | 0.00 | 63 | 1015.9 |
| 20260504200556 | 81 | 134 | 0.9 | 7.8 | 0.00 | 0.00 | 0.00 | 62 | 1016.0 |
| 20260504200457 | 81 | 134 | 1.7 | 7.8 | 0.00 | 0.00 | 0.00 | 62 | 1016.0 |
| 20260504200356 | 81 | 135 | 1.7 | 7.8 | 0.00 | 0.00 | 0.00 | 65 | 1016.0 |
| 20260504200258 | 81 | 262 | 0.9 | 7.8 | 0.00 | 0.00 | 0.00 | 62 | 1016.1 |
| 20260504200158 | 81 | 262 | 0.9 | 7.8 | 0.00 | 0.00 | 0.00 | 65 | 1016.1 |
| 20260504200057 | 81 | 226 | 4.3 | 7.8 | 0.00 | 0.00 | 0.00 | 61 | 1016.2 |
| 20260504195958 | 81 | 299 | 4.3 | 7.8 | 0.00 | 0.00 | 0.00 | 61 | 1016.2 |
| 20260504195857 | 81 | 314 | 2.6 | 7.8 | 0.00 | 0.00 | 0.00 | 61 | 1016.1 |
| 20260504195746 | 81 | 305 | 1.7 | 5.2 | 0.00 | 0.00 | 0.00 | 61 | 1016.2 |
| 20260504195645 | 82 | 226 | 0.9 | 5.2 | 0.00 | 0.00 | 0.00 | 62 | 1016.2 |
| 20260504195544 | 82 | 145 | 1.7 | 5.2 | 0.00 | 0.00 | 0.00 | 63 | 1016.2 |
| 20260504195442 | 81 | 152 | 2.6 | 5.2 | 0.00 | 0.00 | 0.00 | 61 | 1016.2 |
| 20260504195338 | 82 | 185 | 2.6 | 5.2 | 0.00 | 0.00 | 0.00 | 62 | 1016.2 |
| 20260504195235 | 82 | 258 | 2.6 | 5.2 | 0.00 | 0.00 | 0.00 | 60 | 1016.2 |
| 20260504195135 | 82 | 237 | 2.6 | 5.2 | 0.00 | 0.00 | 0.00 | 60 | 1016.1 |
| 20260504195032 | 82 | 338 | 2.6 | 4.3 | 0.00 | 0.00 | 0.00 | 60 | 1016.1 |
| 20260504194931 | 81 | 274 | 1.7 | 3.5 | 0.00 | 0.00 | 0.00 | 60 | 1016.0 |
| 20260504194831 | 81 | 152 | 0.9 | 5.2 | 0.00 | 0.00 | 0.00 | 61 | 1016.2 |
| 20260504194732 | 81 | 213 | 0.9 | 5.2 | 0.00 | 0.00 | 0.00 | 61 | 1016.1 |
| 20260504194632 | 82 | 213 | 1.7 | 5.2 | 0.00 | 0.00 | 0.00 | 62 | 1016.1 |
| 20260504194531 | 81 | 213 | 1.7 | 5.2 | 0.00 | 0.00 | 0.00 | 61 | 1016.2 |
| 20260504194432 | 82 | 171 | 1.7 | 5.2 | 0.00 | 0.00 | 0.00 | 63 | 1016.2 |
| 20260504194331 | 82 | 172 | 0.9 | 5.2 | 0.00 | 0.00 | 0.00 | 61 | 1016.2 |
| 20260504194233 | 82 | 172 | 0.9 | 5.2 | 0.00 | 0.00 | 0.00 | 61 | 1016.3 |
| 20260504194133 | 81 | 171 | 1.7 | 5.2 | 0.00 | 0.00 | 0.00 | 62 | 1016.2 |
| 20260504194032 | 82 | 250 | 2.6 | 5.2 | 0.00 | 0.00 | 0.00 | 61 | 1016.3 |
| 20260504193931 | 82 | 290 | 2.6 | 5.2 | 0.00 | 0.00 | 0.00 | 61 | 1016.3 |
| 20260504193831 | 82 | 327 | 2.6 | 4.3 | 0.00 | 0.00 | 0.00 | 61 | 1016.4 |
| 20260504193734 | 82 | 295 | 2.6 | 4.3 | 0.00 | 0.00 | 0.00 | 63 | 1016.4 |
| 20260504193631 | 82 | 265 | 2.6 | 4.3 | 0.00 | 0.00 | 0.00 | 61 | 1016.3 |
| 20260504193531 | 81 | 195 | 1.7 | 4.3 | 0.00 | 0.00 | 0.00 | 60 | 1016.3 |
| 20260504193433 | 82 | 175 | 0.9 | 4.3 | 0.00 | 0.00 | 0.00 | 61 | 1016.3 |
| 20260504193333 | 82 | 175 | 0.9 | 5.2 | 0.00 | 0.00 | 0.00 | 61 | 1016.3 |
| 20260504193232 | 82 | 175 | 0.9 | 5.2 | 0.00 | 0.00 | 0.00 | 61 | 1016.4 |
| 20260504193109 | 82 | 175 | 1.7 | 5.2 | 0.00 | 0.00 | 0.00 | 61 | 1016.4 |
| 20260504193007 | 82 | 168 | 1.7 | 5.2 | 0.00 | 0.00 | 0.00 | 60 | 1016.4 |
| 20260504192907 | 82 | 255 | 1.7 | 5.2 | 0.00 | 0.00 | 0.00 | 60 | 1016.5 |
| 20260504192806 | 82 | 274 | 1.7 | 5.2 | 0.00 | 0.00 | 0.00 | 61 | 1016.5 |
| 20260504192703 | 82 | 252 | 1.7 | 5.2 | 0.00 | 0.00 | 0.00 | 61 | 1016.5 |
| 20260504192602 | 82 | 28 | 2.6 | 5.2 | 0.00 | 0.00 | 0.00 | 60 | 1016.5 |
| 20260504192504 | 82 | 24 | 2.6 | 5.2 | 0.00 | 0.00 | 0.00 | 58 | 1016.6 |
| 20260504192404 | 81 | 271 | 1.7 | 5.2 | 0.00 | 0.00 | 0.00 | 60 | 1016.7 |
| 20260504192304 | 81 | 113 | 1.7 | 5.2 | 0.00 | 0.00 | 0.00 | 60 | 1016.7 |
| 20260504192202 | 81 | 114 | 1.7 | 5.2 | 0.00 | 0.00 | 0.00 | 60 | 1016.6 |
| 20260504192105 | 81 | 114 | 1.7 | 5.2 | 0.00 | 0.00 | 0.00 | 60 | 1016.7 |
| 20260504192004 | 81 | 103 | 1.7 | 5.2 | 0.00 | 0.00 | 0.00 | 60 | 1016.6 |
| 20260504191903 | 81 | 199 | 1.7 | 5.2 | 0.00 | 0.00 | 0.00 | 61 | 1016.7 |
| 20260504191802 | 81 | 302 | 1.7 | 4.3 | 0.00 | 0.00 | 0.00 | 61 | 1016.6 |
| 20260504191702 | 81 | 235 | 1.7 | 4.3 | 0.00 | 0.00 | 0.00 | 60 | 1016.7 |
| 20260504191603 | 81 | 209 | 0.9 | 4.3 | 0.00 | 0.00 | 0.00 | 60 | 1016.6 |
| 20260504191503 | 81 | 217 | 1.7 | 4.3 | 0.00 | 0.00 | 0.00 | 60 | 1016.7 |
| 20260504191403 | 81 | 140 | 2.6 | 4.3 | 0.00 | 0.00 | 0.00 | 59 | 1016.8 |
| 20260504191303 | 82 | 93 | 1.7 | 4.3 | 0.00 | 0.00 | 0.00 | 60 | 1016.6 |
| 20260504191202 | 82 | 0 | 1.7 | 6.1 | 0.00 | 0.00 | 0.00 | 61 | 1016.7 |
| 20260504191103 | 81 | 38 | 1.7 | 6.1 | 0.00 | 0.00 | 0.00 | 62 | 1016.6 |
| 20260504191002 | 81 | 82 | 1.7 | 6.1 | 0.00 | 0.00 | 0.00 | 61 | 1016.7 |
| 20260504190903 | 81 | 83 | 0.9 | 6.1 | 0.00 | 0.00 | 0.00 | 61 | 1016.8 |
| 20260504190802 | 81 | 86 | 1.7 | 6.1 | 0.00 | 0.00 | 0.00 | 60 | 1016.7 |
| 20260504190703 | 81 | 157 | 2.6 | 6.1 | 0.00 | 0.00 | 0.00 | 60 | 1016.8 |
| 20260504190602 | 81 | 319 | 2.6 | 6.1 | 0.00 | 0.00 | 0.00 | 60 | 1016.8 |
| 20260504190503 | 81 | 275 | 2.6 | 6.1 | 0.00 | 0.00 | 0.00 | 61 | 1016.8 |
| 20260504190404 | 82 | 264 | 4.3 | 6.1 | 0.00 | 0.00 | 0.00 | 60 | 1016.9 |
| 20260504190303 | 82 | 271 | 5.2 | 6.1 | 0.00 | 0.00 | 0.00 | 60 | 1016.8 |
| 20260504190202 | 82 | 282 | 4.3 | 6.1 | 0.00 | 0.00 | 0.00 | 60 | 1016.7 |
| 20260504190004 | 82 | 128 | 1.7 | 6.1 | 0.00 | 0.00 | 0.00 | 59 | 1016.8 |
| 20260504185902 | 82 | 117 | 2.6 | 6.1 | 0.00 | 0.00 | 0.00 | 63 | 1016.8 |
| 20260504185802 | 82 | 104 | 1.7 | 6.1 | 0.00 | 0.00 | 0.00 | 61 | 1016.8 |
| 20260504185704 | 82 | 217 | 0.9 | 3.5 | 0.00 | 0.00 | 0.00 | 61 | 1016.8 |
| 20260504185603 | 81 | 219 | 1.7 | 3.5 | 0.00 | 0.00 | 0.00 | 64 | 1016.9 |
| 20260504185503 | 81 | 189 | 1.7 | 3.5 | 0.00 | 0.00 | 0.00 | 62 | 1016.8 |
| 20260504185403 | 81 | 107 | 0.9 | 3.5 | 0.00 | 0.00 | 0.00 | 63 | 1016.9 |
| 20260504185304 | 81 | 123 | 1.7 | 5.2 | 0.00 | 0.00 | 0.00 | 62 | 1016.8 |
| 20260504185202 | 80 | 354 | 1.7 | 5.2 | 0.00 | 0.00 | 0.00 | 62 | 1016.8 |
| 20260504185101 | 80 | 109 | 1.7 | 5.2 | 0.00 | 0.00 | 0.00 | 61 | 1016.9 |
| 20260504185003 | 80 | 114 | 1.7 | 5.2 | 0.00 | 0.00 | 0.00 | 62 | 1016.9 |
| 20260504184902 | 80 | 63 | 1.7 | 5.2 | 0.00 | 0.00 | 0.00 | 62 | 1016.9 |
| 20260504184802 | 80 | 138 | 0.9 | 5.2 | 0.00 | 0.00 | 0.00 | 61 | 1017.0 |
| 20260504184702 | 80 | 175 | 0.9 | 5.2 | 0.00 | 0.00 | 0.00 | 60 | 1016.9 |
| 20260504184602 | 80 | 175 | 0.9 | 5.2 | 0.00 | 0.00 | 0.00 | 59 | 1017.0 |
| 20260504184503 | 80 | 185 | 1.7 | 5.2 | 0.00 | 0.00 | 0.00 | 60 | 1017.0 |
| 20260504184403 | 80 | 204 | 2.6 | 5.2 | 0.00 | 0.00 | 0.00 | 61 | 1017.0 |
| 20260504184303 | 81 | 4 | 1.7 | 5.2 | 0.00 | 0.00 | 0.00 | 62 | 1017.0 |
| 20260504184202 | 80 | 18 | 1.7 | 5.2 | 0.00 | 0.00 | 0.00 | 62 | 1017.1 |
| 20260504184102 | 80 | 111 | 1.7 | 5.2 | 0.00 | 0.00 | 0.00 | 62 | 1017.0 |
| 20260504184005 | 80 | 85 | 1.7 | 5.2 | 0.00 | 0.00 | 0.00 | 61 | 1017.1 |
| 20260504183903 | 80 | 130 | 0.9 | 5.2 | 0.00 | 0.00 | 0.00 | 61 | 1017.0 |
| 20260504183802 | 80 | 130 | 1.7 | 5.2 | 0.00 | 0.00 | 0.00 | 62 | 1017.0 |
| 20260504183703 | 80 | 49 | 2.6 | 5.2 | 0.00 | 0.00 | 0.00 | 60 | 1017.0 |
| 20260504183602 | 80 | 48 | 2.6 | 5.2 | 0.00 | 0.00 | 0.00 | 60 | 1016.9 |
| 20260504183503 | 80 | 127 | 2.6 | 5.2 | 0.00 | 0.00 | 0.00 | 58 | 1017.0 |
| 20260504183403 | 80 | 151 | 1.7 | 5.2 | 0.00 | 0.00 | 0.00 | 58 | 1017.0 |
| 20260504183303 | 80 | 178 | 1.7 | 4.3 | 0.00 | 0.00 | 0.00 | 58 | 1016.9 |
| 20260504183202 | 80 | 230 | 2.6 | 4.3 | 0.00 | 0.00 | 0.00 | 58 | 1016.9 |
| 20260504183102 | 81 | 96 | 2.6 | 5.2 | 0.00 | 0.00 | 0.00 | 59 | 1016.9 |
| 20260504183004 | 81 | 123 | 2.6 | 5.2 | 0.00 | 0.00 | 0.00 | 60 | 1016.9 |
| 20260504182902 | 80 | 155 | 2.6 | 5.2 | 0.00 | 0.00 | 0.00 | 60 | 1016.9 |
| 20260504182802 | 80 | 158 | 1.7 | 5.2 | 0.00 | 0.00 | 0.00 | 60 | 1016.8 |
| 20260504182703 | 80 | 154 | 1.7 | 6.1 | 0.00 | 0.00 | 0.00 | 58 | 1016.8 |
| 20260504182604 | 80 | 131 | 2.6 | 6.1 | 0.00 | 0.00 | 0.00 | 58 | 1016.8 |
| 20260504182503 | 80 | 345 | 2.6 | 6.1 | 0.00 | 0.00 | 0.00 | 59 | 1016.8 |
| 20260504182402 | 80 | 247 | 1.7 | 6.1 | 0.00 | 0.00 | 0.00 | 58 | 1016.9 |
| 20260504182304 | 80 | 288 | 1.7 | 6.1 | 0.00 | 0.00 | 0.00 | 58 | 1017.0 |
| 20260504182203 | 80 | 61 | 2.6 | 6.1 | 0.00 | 0.00 | 0.00 | 61 | 1017.1 |